This site uses a module created by best online poker sites.

BSB police report ending January 3, 2018

"01/02/2018","00:22","218CR0000079","WELFARE CHECK","WELFARE CHECK","12 LAIRD","",""
"01/02/2018","01:51","218CR0000080","DISTURBANCE","DISTURBANCE","207 W PARK APT","",""
"01/02/2018","01:52","218CR0000081","WELFARE CHECK","WELFARE CHECK","227 S WASHINGTON","",""
"01/02/2018","03:17","218CR0000082","T/S","T/S @ GARLAND AND HARRISON AVE","GARLAND AND HARRISON AVE","",""
"01/02/2018","03:25","218CR0000083","DISTURBANCE","DISTURBANCE","1125 S MAIN APT115","",""
"01/02/2018","03:26","218CR0000084","MEDICAL - EMERGENCY","MEDICAL - EMERGENCY","834 W QUARTZ","",""
"01/02/2018","03:30","218CR0000085","SUSPICIOUS ACTIVITY","SUSPICIOUS ACTIVITY","20 S MONTANA ST","",""
"01/02/2018","04:11","218CR0000086","UNWANTED PERSON","UNWANTED PERSON","************","",""
"01/02/2018","04:17","218CR0000087","MEDICAL - EMERGENCY","MEDICAL - EMERGENCY","709 PLACER ST","",""
"01/02/2018","04:34","218CR0000088","MEDICAL - EMERGENCY","MEDICAL - EMERGENCY","3120 BAYARD","",""
"01/02/2018","04:38","218CR0000089","MEDICAL - EMERGENCY","MEDICAL - EMERGENCY","1125 S MAIN #115","",""
"01/02/2018","05:00","218CR0000090","ACCIDENT","ACCIDENT","225 N ALASKA","",""
"01/02/2018","06:55","218CR0000091","ALARM - BURGLARY","ALARM - BURGLARY","************","",""
"01/02/2018","07:58","218CR0000092","SUSPICIOUS ACTIVITY","SUSPICIOUS ACTIVITY","WEST END OF JOSSETTE","",""
"01/02/2018","08:00","218CR0000093","FIRE- GAS ODOR","FIRE- GAS ODOR","2930 MAMMOTH","",""
"01/02/2018","08:22","218CR0000094","FIRE - VEHICLE","FIRE - VEHICLE","115 // EXCELSIOR ST EXIT","",""
"01/02/2018","08:24","218CR0000095","MEDICAL - EMERGENCY","MEDICAL - EMERGENCY","2074 FLORIDA AVE","",""
"01/02/2018","08:29","218CR0000096","WELFARE CHECK","WELFARE CHECK","949 S MONTANA","",""
"01/02/2018","08:40","218CR0000097","DISTURBANCE","DISTURBANCE","2620 COLUSA ST","",""
"01/02/2018","08:43","218CR0000098","SUSPICIOUS ACTIVITY","SUSPICIOUS ACTIVITY","3636 HARRISON AVE","",""
"01/02/2018","08:55","218CR0000099","T/S","T/S","LEXINGTON AND DEWEY","",""
"01/02/2018","09:02","218CR0000100","MEDICAL - EMERGENCY","MEDICAL - EMERGENCY","3033 BUSCH #53","",""
"01/02/2018","09:04","218CR0000101","HARASSMENT","PRIVACY IN COMMUNICATION","225 N ALASKA","",""
"01/02/2018","09:26","218CR0000102","WELFARE CHECK","WELFARE CHECK","1119 CALIFORNIA AVE","",""
"01/02/2018","09:34","218CR0000103","ALARM - MEDICAL","ALARM - MEDICAL","************","",""
"01/02/2018","09:40","218CR0000104","LED BUSINESS","LED BUSINESS","155 W GRANITE","",""
"01/02/2018","09:54","218CR0000105","DETENTION BUSINESS","DETENTION BUSINESS","************","",""
"01/02/2018","10:00","218CR0000106","UNWANTED PERSON","UNWANTED PERSON","************","",""
"01/02/2018","10:47","218CR0000107","DISTURBANCE","DISTURBANCE","211 N MONTANA APT B","",""
"01/02/2018","11:05","218CR0000108","PARKING COMPLAINT","PARKING COMPLAINT","S EXCELSIOR AT OVERPASS","",""
"01/02/2018","11:16","218CR0000109","SNOW REMOVAL COMPLAINT","SNOW REMOVAL COMPLAINT","2000 BLK BANKS","",""
"01/02/2018","11:20","218CR0000110","VANDALISM/CRIMINAL MISCHIEF","VANDALISM/CRIMINAL MISCHIEF","1006 W QUARTZ","",""
"01/02/2018","11:42","218CR0000111","T/S","T/S @ FRONT AND UTAH","FRONT AND UTAH","",""
"01/02/2018","11:58","218CR0000112","T/S","CRIMINAL CONTEMPT","AMHERST AND SHERMAN","ARREST(s) MADE",""
"01/02/2018","12:18","218CR0000113","DISTURBANCE","DISTURBANCE","920 S MONTANA","",""
"01/02/2018","12:22","218CR0000114","WELFARE CHECK","WELFARE CHECK","820 CALEDONIA ST","",""
"01/02/2018","12:30","218CR0000115","CIVIL STANDBY","CIVIL STANDBY","634 W BROADWAY","",""
"01/02/2018","12:44","218CR0000116","UNWANTED PERSON","UNWANTED PERSON","************","",""
"01/02/2018","12:44","218CR0000117","ASSAULT","PFMA - MINOR INJ/PHYSICAL CONT","1501 4TH","",""
"01/02/2018","12:47","218CR0000118","CIVIL PAPER SERVICE","CIVIL PAPER SERVICE","3021 EAGLE","",""
"01/02/2018","13:11","218CR0000119","MEDICAL - EMERGENCY","MEDICAL - EMERGENCY","24 E COPPER","",""
"01/02/2018","13:25","218CR0000120","UNWANTED PERSON","FAILURE TO DISPERSE","1324 HARRISON","ARREST(s) MADE",""
"01/02/2018","13:37","218CR0000121","THEFT","THEFT, SHOPLIFT","3901 HARRISON AVE","",""
"01/02/2018","14:18","218CR0000122","WELFARE CHECK","WELFARE CHECK","4950 MOULTON RES RD","",""
"01/02/2018","14:21","218CR0000123","DETENTION BUSINESS","DETENTION BUSINESS","************","",""
"01/02/2018","14:28","218CR0000124","T/S","FAILURE TO WEAR SEATBELT","LEXINGTON AND DEWEY","",""
"01/02/2018","14:44","218CR0000125","ASSIST OTHER AGENCY","ASSIST OTHER AGENCY","620 1/2 S IDAHO","",""
"01/02/2018","15:01","218CR0000126","UNWANTED PERSON","UNWANTED PERSON","************","",""
"01/02/2018","15:14","218CR0000127","UNWANTED PERSON","UNWANTED PERSON","************","",""
"01/02/2018","15:23","218CR0000128","ASSIST OTHER AGENCY","ASSIST OTHER AGENCY","I90 MM 216 EB","",""
"01/02/2018","15:26","218CR0000129","HARASSMENT","HARASSMENT","729 W QUARTZ","",""
"01/02/2018","15:36","218CR0000130","DETENTION BUSINESS","DETENTION BUSINESS","************","",""
"01/02/2018","15:37","218CR0000131","CITIZEN AID","CITIZEN AID","225 N ALASKA","",""
"01/02/2018","15:55","218CR0000133","T/S","T/S @ LOCUST AND CONTINENTAL DR","LOCUST AND CONTINENTAL DR","",""
"01/02/2018","16:02","218CR0000135","ACCIDENT","ACCIDENT","LONGFELLOW AND WYNNE ST","",""
"01/02/2018","16:27","218CR0000137","ACCIDENT","ACCIDENT","1957 HARRISON AVE","",""
"01/02/2018","16:34","218CR0000138","JUVENILE MISC","JUVENILE MISC","************","",""
"01/02/2018","16:42","218CR0000139","ATL","ROBBERY","3900 JUPITER LANE","ARREST(s) MADE",""
"01/02/2018","16:43","218CR0000140","CIVIL STANDBY","CIVIL STANDBY","3400 HILL APT 1005","",""
"01/02/2018","17:01","218CR0000141","FIRE - VEHICLE","FIRE - VEHICLE","2900 BLK KEOKUK","",""
"01/02/2018","17:29","218CR0000142","SUSPICIOUS ACTIVITY","SUSPICIOUS ACTIVITY","1515 OREGON APT 806","",""
"01/02/2018","17:37","218CR0000143","T/S","T/S","BUTTE","",""
"01/02/2018","17:49","218CR0000144","ALL OTHER","ALL OTHER","1125 S MAIN ST #213","",""
"01/02/2018","18:14","218CR0000145","DISTURBANCE","DISTURBANCE","1431 MOTORVIEW","",""
"01/02/2018","18:42","218CR0000146","ALARM - BURGLARY","ALARM - BURGLARY","************","",""
"01/02/2018","18:47","218CR0000147","DISTURBANCE","DISTURBANCE","1013 S UTAH","",""
"01/02/2018","18:54","218CR0000148","MEDICAL - EMERGENCY","MEDICAL - EMERGENCY","304 N MAIN","",""
"01/02/2018","19:03","218CR0000149","DISTURBANCE","PFMA - REASONABLE APPREHENSION","1125 S MAIN #305","ARREST(s) MADE",""
"01/02/2018","19:09","218CR0000150","MEDICAL - EMERGENCY","MEDICAL - EMERGENCY","306 N MAIN APT B","",""
"01/02/2018","19:41","218CR0000151","T/S","T/S @ PIRATES TRESURE CASINO","PIRATES TRESURE CASINO","",""
"01/02/2018","19:55","218CR0000152","T/S","T/S @ FARRELL AND THORTON","FARRELL AND THORTON","",""
"01/02/2018","20:05","218CR0000153","T/S","T/S @ PARK AND EXCLSIOR","PARK AND EXCLSIOR","",""
"01/02/2018","20:06","218CR0000154","DISTURBANCE","DISTURBANCE","1129 W GRANITE","",""
"01/02/2018","20:58","218CR0000155","WELFARE CHECK","WELFARE CHECK","810 TRAVONIA","",""
"01/02/2018","20:59","218CR0000156","DISTURBANCE","DISTURBANCE","1305 SILVERBOW HOMES","",""
"01/02/2018","21:03","218CR0000157","SUICIDE ATTEMPT/THREAT","SUICIDE ATTEMPT/THREAT","************","",""
"01/02/2018","21:45","218CR0000158","SUSPICIOUS ACTIVITY","SUSPICIOUS ACTIVITY","HAGGIN VIEW ROAD","",""
"01/02/2018","22:19","218CR0000159","T/S","NO LIABILITY INSURANCE IN EFF.","TEXAS AND GEORGE","",""
"01/02/2018","22:47","218CR0000160","MEDICAL - ASSIST","MEDICAL - ASSIST","************","",""
"01/02/2018","23:00","218CR0000161","BURGLARY","BURGLARY, RESIDENCE","1932 OREGON AVE","",""
"01/02/2018","23:19","218CR0000162","MEDICAL - EMERGENCY","MEDICAL - EMERGENCY","1205 S MT # 19","",""
"01/02/2018","23:28","218CR0000163","UNKNOWN PROBLEM","UNKNOWN PROBLEM","1021 S ARIZONA ST","",""
"01/03/2018","00:06","218CR0000164","SUICIDE ATTEMPT/THREAT","SUICIDE ATTEMPT/THREAT","************","",""
"01/03/2018","00:25","218CR0000165","T/S","T/S @ ","","",""
"01/03/2018","01:11","218CR0000166","ACCIDENT","ACCIDENT","3221 HARRISON AVE","",""
"01/03/2018","02:58","218CR0000167","ACCIDENT","ACCIDENT","SAMPSON ST AND WYNNE AVE","",""
"01/03/2018","03:00","218CR0000168","MEDICAL - EMERGENCY","MEDICAL - EMERGENCY","119771 RICK JONES WAY","",""
"01/03/2018","03:27","218CR0000169","ASSIST OTHER AGENCY","ASSIST OTHER AGENCY","I15 MM 157 SB","",""
"01/03/2018","04:28","218CR0000170","ACCIDENT","ACCIDENT","I90 WB MM 229","",""
"01/03/2018","05:15","218CR0000171","T/S","T/S","2200 BLK AMHERST","",""
"01/03/2018","05:34","218CR0000172","MEDICAL - EMERGENCY","MEDICAL - EMERGENCY","1324 HARRISON","",""
"01/03/2018","06:04","218CR0000173","SUSPICIOUS ACTIVITY","SUSPICIOUS ACTIVITY","100 BLK N IDAHO","",""
"01/03/2018","07:00","218CR0000174","ALARM - BURGLARY","ALARM - BURGLARY","************","",""
"01/03/2018","07:35","218CR0000176","CIVIL STANDBY","CIVIL STANDBY","1001 N EMMETT ST","",""
"01/03/2018","08:43","218CR0000177","HIT AND RUN","HIT AND RUN","1130 W PARK","",""
 

BSB police report ending January 2, 2018

"12/29/2017","00:07","217CR0033356","ASSAULT","ASSAULT","************","",""
"12/29/2017","00:21","217CR0033357","ACCIDENT","ACCIDENT","CIVIC CENTER N PARKING LOT","",""
"12/29/2017","00:45","217CR0033358","DISTURBANCE","DISTURBANCE","60 E BROADWAY /ACOMA","",""
"12/29/2017","00:54","217CR0033359","MEDICAL - EMERGENCY","MEDICAL - EMERGENCY","3434 BURLINGTON","",""
"12/29/2017","00:56","217CR0033360","INTOXICATED PERSON","INTOXICATED PERSON","10 BLK W PARK","",""
"12/29/2017","01:01","217CR0033361","ASSAULT","ASSAULT","************","",""
"12/29/2017","01:03","217CR0033362","ACCIDENT-MHP","ACCIDENT-MHP","S ROCKER RD AND SANTA CLAUS","",""
"12/29/2017","01:14","217CR0033363","ATL","ATL","ST ANN AND BANKS","",""
"12/29/2017","01:34","217CR0033364","DISTURBANCE","DISTURBANCE","112 N MAIN MALONEYS BAR","",""
"12/29/2017","02:11","217CR0033365","SUSPICIOUS ACTIVITY","OUT OF JURISDICTION - MISD","EXCELSIOR AND GALENA","",""
"12/29/2017","02:14","217CR0033366","ACCIDENT","ACCIDENT","I90 MM 215 EB","",""
"12/29/2017","02:20","217CR0033367","SUSPICIOUS ACTIVITY","DUI - (REFUSAL)","FRONT AND UTAH","ARREST(s) MADE",""
"12/29/2017","02:27","217CR0033368","UNKNOWN PROBLEM","UNKNOWN PROBLEM","314 W COPPER","",""
"12/29/2017","02:50","217CR0033369","DISTURBANCE","POSSESSION OF DANGEROUS DRUGS","727 MARYLAND AVE","ARREST(s) MADE",""
"12/29/2017","03:05","217CR0033370","T/S","DRIVING W/OUT VALID D/L","BROADWAY AND WYOMING","",""
"12/29/2017","03:22","217CR0033371","PROWLER","PROWLER","112 ROW SILVERBOW HOMES","",""
"12/29/2017","03:33","217CR0033372","TRAFFIC HAZARD","TRAFFIC HAZARD","200 BLK CENTENNIAL","",""
"12/29/2017","03:40","217CR0033373","WANTED PERSON","WANTED PERSON","************","",""
"12/29/2017","04:17","217CR0033374","SUSPICIOUS ACTIVITY","SUSPICIOUS ACTIVITY","1600 BLK N MAIN","",""
"12/29/2017","04:54","217CR0033375","SUSPICIOUS ACTIVITY","SUSPICIOUS ACTIVITY","1760 HARRISON SOUTHWEST MT FCU","",""
"12/29/2017","06:27","217CR0033376","STOLEN VEHICLE","MOTOR VEHICLE THEFT","122005 NISSLER RD","",""
"12/29/2017","07:36","217CR0033377","MEDICAL - EMERGENCY","MEDICAL - EMERGENCY","1504 SILVER BOW HOMES","",""
"12/29/2017","07:48","217CR0033378","FRAUD","FRAUD","2632 HARRISON","",""
"12/29/2017","08:05","217CR0033379","DRUGS","DRUGS","************","",""
"12/29/2017","08:05","217CR0033380","ACCIDENT-MHP","ACCIDENT-MHP","I15 MM 127 S BND","",""
"12/29/2017","08:47","217CR0033381","CIVIL PAPER SERVICE","CIVIL PAPER SERVICE","2620 SILVER BOW BLVD","",""
"12/29/2017","08:57","217CR0033382","ILLEGAL SHOOTING","ILLEGAL SHOOTING","921 STANDBY CREEK RD","",""
"12/29/2017","08:59","217CR0033383","CITIZEN AID","CITIZEN AID","COBBAN ST AND HARRISON AVE","",""
"12/29/2017","09:03","217CR0033384","DISTURBANCE","DISTURBANCE","1325 W QUARTZ #304","",""
"12/29/2017","09:26","217CR0033385","FIRE - VEHICLE","FIRE - VEHICLE","I 15 MM 106 N BND","",""
"12/29/2017","09:34","217CR0033386","MEDICAL - EMERGENCY","MEDICAL - EMERGENCY","100 GARDENS WAY #101","",""
"12/29/2017","09:46","217CR0033387","FIRE - OTHER","FIRE - OTHER","22 W GALENA","",""
"12/29/2017","09:49","217CR0033388","FIRE- GAS ODOR","FIRE- GAS ODOR","290 HOLLAND AVE","",""
"12/29/2017","10:06","217CR0033389","OPEN BUILDING","OPEN BUILDING","615 W SILVER","",""
"12/29/2017","10:10","217CR0033390","TRAFFIC HAZARD","TRAFFIC HAZARD","HENRY AND LEWISOHN","",""
"12/29/2017","10:31","217CR0033391","THEFT","THEFT","4800 HARRISON #16","",""
"12/29/2017","10:37","217CR0033392","CRIMINAL TRESPASS","CRIMINAL TRESPASS","1821 CAROLINA ST","",""
"12/29/2017","10:46","217CR0033393","ALARM - BURGLARY","ALARM - BURGLARY","************","",""
"12/29/2017","11:26","217CR0033394","HIT AND RUN","HIT AND RUN","1680 WILSON","",""
"12/29/2017","11:42","217CR0033395","STOLEN VEHICLE","STOLEN VEHICLE","405 W GRANITE","",""
"12/29/2017","11:45","217CR0033396","DISTURBANCE","DISTURBANCE","1 E BROADWAY","",""
"12/29/2017","11:53","217CR0033397","CIVIL STANDBY","CIVIL STANDBY","1736 LONGFELLOW #8","",""
"12/29/2017","11:54","217CR0033398","WELFARE CHECK","WELFARE CHECK","1218 RACCOON WAY","",""
"12/29/2017","12:09","217CR0033399","WELFARE CHECK","WELFARE CHECK","33 E IRON","",""
"12/29/2017","12:26","217CR0033400","TRAFFIC HAZARD","TRAFFIC HAZARD","900 BLK IOWA ST","",""
"12/29/2017","12:45","217CR0033401","CIVIL STANDBY","CIVIL STANDBY","634 W BROADWAY","",""
"12/29/2017","12:46","217CR0033402","FRAUD","FRAUD","220 N WYOMING","",""
"12/29/2017","12:47","217CR0033403","T/S","T/S","CIVIC CENTER AND TEXAS","",""
"12/29/2017","13:15","217CR0033404","CIVIL PAPER SERVICE","CIVIL PAPER SERVICE","2300 BLK HARRISON","",""
"12/29/2017","13:22","217CR0033405","CIVIL PAPER SERVICE","CIVIL PAPER SERVICE","800 DEWEY BLVD","",""
"12/29/2017","13:29","217CR0033406","MEDICAL - EMERGENCY","MEDICAL - EMERGENCY","1375 JOY LANE","",""
"12/29/2017","13:33","217CR0033407","HARASSMENT","HARASSMENT","1324 HARRISON","",""
"12/29/2017","13:45","217CR0033408","FOUND PROPERTY","FOUND PROPERTY","************","",""
"12/29/2017","13:53","217CR0033409","T/S","T/S","BROADWAY AND MAIN","",""
"12/29/2017","13:59","217CR0033410","TRAFFIC HAZARD","TRAFFIC HAZARD","519 W ALUMINUM","",""
"12/29/2017","14:00","217CR0033411","ASSAULT","ASSAULT, SIMPLE","1540 A ST","ARREST(s) MADE",""
"12/29/2017","14:26","217CR0033412","FRAUD","FRAUD","2017 HARRISON AVE","",""
"12/29/2017","14:27","217CR0033413","ALL OTHER","ALL OTHER","225 N ALASKA ST","",""
"12/29/2017","14:29","217CR0033414","ATL","ATL","609 CENTENNIAL AVE","",""
"12/29/2017","14:53","217CR0033415","LED BUSINESS","LED BUSINESS","IDAHO ST AND PLATINUM ST","",""
"12/29/2017","15:02","217CR0033416","DISTURBANCE","ASSAULT, SIMPLE","BLUE WING // B STREET","ARREST(s) MADE",""
"12/29/2017","15:04","217CR0033417","SUSPICIOUS ACTIVITY","SUSPICIOUS ACTIVITY","501 E FRONT STE 504","",""
"12/29/2017","15:08","217CR0033418","T/S","T/S","FLORAL BLVD AND PORTER","",""
"12/29/2017","15:20","217CR0033419","T/S","T/S @ HARRISON AND COBBAN","HARRISON AND COBBAN","",""
"12/29/2017","15:21","217CR0033420","BUSINESS CHECK","BUSINESS CHECK","1370 HARRISON","",""
"12/29/2017","15:26","217CR0033421","DETENTION BUSINESS","DETENTION BUSINESS","************","",""
"12/29/2017","15:34","217CR0033422","ALL OTHER","ALL OTHER","33 E IRON","",""
"12/29/2017","15:41","217CR0033423","T/S","T/S","GRAND AVE AND CONTINENTAL DR","",""
"12/29/2017","15:46","217CR0033424","FRAUD","FRAUD","","",""
"12/29/2017","15:47","217CR0033425","FRAUD","FRAUD","1839 HARRISON","",""
"12/29/2017","15:51","217CR0033428","ALARM - BURGLARY","ALARM - BURGLARY","************","",""
"12/29/2017","15:52","217CR0033426","DISTURBANCE","DISTURBANCE","1700 BLK LOWELL","",""
"12/29/2017","15:54","217CR0033427","T/S","T/S @ PLATINUM ST AND ARIZONA ST","PLATINUM ST AND ARIZONA ST","",""
"12/29/2017","15:58","217CR0033429","T/S","OPERATING WITHOUT CURRENT REGI","FRONT AND MONTANA ST","",""
"12/29/2017","16:22","217CR0033430","SUSPICIOUS ACTIVITY","SUSPICIOUS ACTIVITY","","",""
"12/29/2017","16:24","217CR0033431","W/PRISONER","W/PRISONER","SCOOP BAR LOT","",""
"12/29/2017","16:30","217CR0033432","FRAUD","FRAUD","1839 HARRISON","",""
"12/29/2017","16:34","217CR0033434","DISTURBANCE","DISTURBANCE","1325 W QUARTZ APT 104","",""
"12/29/2017","16:35","217CR0033433","T/S","SPEEDING","2600 GRAND AVE/EAST MIDDLE SCO","",""
"12/29/2017","16:41","217CR0033435","ASSIST OTHER AGENCY","ASSIST OTHER AGENCY","3541 S WARREN","",""
"12/29/2017","16:43","217CR0033436","DISTURBANCE","DISTURBANCE","1112 E SECOND ST","",""
"12/29/2017","16:46","217CR0033437","T/S","T/S @ MARYLANDAND SECOND","MARYLANDAND SECOND","",""
"12/29/2017","17:01","217CR0033438","CIVIL PAPER SERVICE","CIVIL PAPER SERVICE","900 W QUARTZ","",""
"12/29/2017","17:19","217CR0033439","ALL OTHER","ALL OTHER","408 S DAKOTA ST","",""
"12/29/2017","17:57","217CR0033440","DISTURBANCE","DISTURBANCE","355 W GRANITE","",""
"12/29/2017","18:15","217CR0033441","T/S","T/S","FLORENCE AVE AND OTTAWA ST","",""
"12/29/2017","18:19","217CR0033442","THEFT","BURGLARY, RESIDENCE","2620 COLUSA","",""
"12/29/2017","18:21","217CR0033443","THEFT","BURGLARY, RESIDENCE","1408 C ST","",""
"12/29/2017","18:35","217CR0033444","ASSAULT","ASSAULT, SIMPLE","659 W GRANITE","",""
"12/29/2017","18:50","217CR0033445","WELFARE CHECK","WELFARE CHECK","1501 FOURTH STREET","",""
"12/29/2017","19:02","217CR0033446","JUVENILE RUNAWAY","JUVENILE RUNAWAY","************","",""
"12/29/2017","19:19","217CR0033447","THEFT","MOTOR VEHICLE THEFT","1700 HARRISON AVE","",""
"12/29/2017","19:25","217CR0033448","WELFARE CHECK","WELFARE CHECK","625 W PARK","",""
"12/29/2017","20:03","217CR0033449","DISTURBANCE","POSSESSION OF DANGEROUS DRUGS","929 CALEDONIA","ARREST(s) MADE",""
"12/29/2017","20:24","217CR0033450","THEFT","THEFT","531 S MONTANA","",""
"12/29/2017","20:26","217CR0033451","T/S","T/S @ CIVIC CENTER PARKING LOT","CIVIC CENTER PARKING LOT","",""
"12/29/2017","20:29","217CR0033452","UNWANTED PERSON","UNWANTED PERSON","************","",""
"12/29/2017","20:43","217CR0033453","HIT AND RUN","HIT AND RUN","1960 HARRISON AVE","",""
"12/29/2017","20:49","217CR0033454","SUSPICIOUS ACTIVITY","SUSPICIOUS ACTIVITY","CIVIC CENTER RD AND HARRISON A","",""
"12/29/2017","21:22","217CR0033455","HARASSMENT","HARASSMENT","1406 SILVERBOW HOMES","",""
"12/29/2017","21:26","217CR0033456","ACCIDENT","ACCIDENT","301 W DALY","",""
"12/29/2017","21:43","217CR0033457","JUVENILE MISC","JUVENILE MISC","************","",""
"12/29/2017","21:53","217CR0033458","SUSPICIOUS ACTIVITY","SUSPICIOUS ACTIVITY","2544 HARRISON LISACS TRI STOP","",""
"12/29/2017","22:19","217CR0033459","ATL","ATL","3001 HARRISON MCDONALDS","",""
"12/29/2017","22:42","217CR0033460","ASSIST OTHER AGENCY","ASSIST OTHER AGENCY","HARRISON AND COBBAN","",""
"12/29/2017","22:53","217CR0033462","DISTURBANCE","DISTURBANCE","2234 GRAND AVE","",""
"12/29/2017","22:53","217CR0033461","SUSPICIOUS ACTIVITY","SUSPICIOUS ACTIVITY","FIRST ST AND UTAH AVE","",""
"12/29/2017","23:01","217CR0033463","INFORMATION ONLY","INFORMATION ONLY","225 N ALASKA ST","",""
"12/29/2017","23:03","217CR0033464","INTOXICATED PERSON","INTOXICATED PERSON","905 N EXCELSIOR SAMS PLACE","",""
"12/29/2017","23:06","217CR0033465","RESTRAINING ORDER VIOLATION","RESTRAINING ORDER VIOLATION","************","",""
"12/29/2017","23:15","217CR0033466","T/S","T/S","MERCURY AND EXCELSIOR","",""
"12/29/2017","23:18","217CR0033467","T/S","T/S","2900 BLK HARRSON/PERKINS","",""
"12/29/2017","23:38","217CR0033468","TRAFFIC HAZARD","TRAFFIC HAZARD","2400 HARRISON","",""
"12/29/2017","23:40","217CR0033469","BUSINESS CHECK","BUSINESS CHECK","531 S MONTANA","",""
"12/29/2017","23:46","217CR0033470","T/S","T/S @ HARRISON AND GRAND","HARRISON AND GRAND","",""
"12/30/2017","00:00","217CR0033471","T/S","T/S","FARRELL ST AND STUART AVE","",""
"12/30/2017","00:18","217CR0033472","DISTURBANCE","DISTURBANCE","501 S MONTANA CORNER BAR","",""
"12/30/2017","00:20","217CR0033473","SUSPICIOUS ACTIVITY","SUSPICIOUS ACTIVITY","228 E SECOND ST","",""
"12/30/2017","00:25","217CR0033474","BUSINESS CHECK","BUSINESS CHECK","531 S MONTANA TOWN PUMP","",""
"12/30/2017","00:52","217CR0033475","LED BUSINESS","LED BUSINESS","400 S CLARK ST","",""
"12/30/2017","01:03","217CR0033476","SUSPICIOUS ACTIVITY","SUSPICIOUS ACTIVITY","901 E FRONT THRIFTWAY","",""
"12/30/2017","01:21","217CR0033477","SUSPICIOUS ACTIVITY","SUSPICIOUS ACTIVITY","1643 B STREET","",""
"12/30/2017","01:40","217CR0033478","SUSPICIOUS ACTIVITY","SUSPICIOUS ACTIVITY","MAIN AND IOWA AVE","",""
"12/30/2017","01:42","217CR0033479","UNWANTED PERSON","UNWANTED PERSON","************","",""
"12/30/2017","01:53","217CR0033480","SUSPICIOUS ACTIVITY","SUSPICIOUS ACTIVITY","1300 BLK SUNSET","",""
"12/30/2017","02:07","217CR0033481","DISTURBANCE-NOISE","DISTURBANCE-NOISE","931 S UTAH","",""
"12/30/2017","02:11","217CR0033482","T/S","T/S @ 823 S MONTANA THUNDER ALLEY","823 S MONTANA THUNDER ALLEY","",""
"12/30/2017","02:14","217CR0033483","DISTURBANCE-NOISE","AGGRAVATED DUI","HAMBLIN HEIGHTS TRAILER COURT","ARREST(s) MADE",""
"12/30/2017","02:25","217CR0033484","SUSPICIOUS ACTIVITY","SUSPICIOUS ACTIVITY","3200 BLK HARRISON","",""
"12/30/2017","02:26","217CR0033485","STOLEN VEHICLE","STOLEN VEHICLE","108 MULLIN ST","",""
"12/30/2017","03:41","217CR0033486","ALL OTHER","ALL OTHER","2050 BEEF TRAIL RD","",""
"12/30/2017","04:10","217CR0033487","ATL","ATL","FLYING J 122000 BROWNS GLCH RD","",""
"12/30/2017","05:10","217CR0033488","CITIZEN AID","CITIZEN AID","900 W QUARTZ","",""
"12/30/2017","07:27","217CR0033489","CIVIL PAPER SERVICE","CIVIL PAPER SERVICE","62 W BROADWAY","",""
"12/30/2017","07:37","217CR0033490","MEDICAL - EMERGENCY","MEDICAL - EMERGENCY","1324 HARRISON","",""
"12/30/2017","07:49","217CR0033491","PROWLER","PROWLER","901 LEXINGTON ST","",""
"12/30/2017","08:00","217CR0033492","SUICIDE ATTEMPT/THREAT","DISORDERLY CONDUCT","1839 OREGON","ARREST(s) MADE",""
"12/30/2017","08:09","217CR0033493","STOLEN VEHICLE","STOLEN VEHICLE","122001 W BROWNS GULCH RD","",""
"12/30/2017","08:10","217CR0033494","THEFT","THEFT FROM MOTOR VEHICLE","100 GARDENS WY #120","",""
"12/30/2017","08:21","217CR0033495","DISTURBANCE","DISTURBANCE","213 CURTIS ST","",""
"12/30/2017","08:39","217CR0033496","INFORMATION ONLY","INFORMATION ONLY","FEELY REST AREA","",""
"12/30/2017","08:51","217CR0033497","SUICIDE ATTEMPT/THREAT","SUICIDE ATTEMPT/THREAT","************","",""
"12/30/2017","08:56","217CR0033498","ACCIDENT-MHP","ACCIDENT-MHP","I90 MM 194 EB","",""
"12/30/2017","09:34","217CR0033499","MEDICAL - EMERGENCY","MEDICAL - EMERGENCY","2510 ELM ST","",""
"12/30/2017","09:48","217CR0033500","MEDICAL - EMERGENCY","MEDICAL - EMERGENCY","100 GARDENS WY APT 101","",""
"12/30/2017","09:55","217CR0033501","CIVIL PAPER SERVICE","CIVIL PAPER SERVICE","706 W GALENA","",""
"12/30/2017","09:59","217CR0033502","CIVIL PAPER SERVICE","CIVIL PAPER SERVICE","209 S CRYSTAL ST","",""
"12/30/2017","10:04","217CR0033503","CIVIL PAPER SERVICE","CIVIL PAPER SERVICE","625 W PARK","",""
"12/30/2017","10:15","217CR0033504","CIVIL PAPER SERVICE","CIVIL PAPER SERVICE","151 W DALY","",""
"12/30/2017","10:19","217CR0033506","ALARM - BURGLARY","ALARM - BURGLARY","************","",""
"12/30/2017","10:21","217CR0033505","ALARM - BURGLARY","ALARM - BURGLARY","************","",""
"12/30/2017","10:36","217CR0033507","CIVIL PAPER SERVICE","CIVIL PAPER SERVICE","2620 SILVER BOW BLVD","",""
"12/30/2017","10:46","217CR0033508","CITIZEN AID","CITIZEN AID","1906 MASSACHUSETTS","",""
"12/30/2017","10:50","217CR0033509","HIT AND RUN","HIT AND RUN","2030 ROBERTS AVE","",""
"12/30/2017","10:57","217CR0033510","BURGLARY","BURGLARY, RESIDENCE","815 EMPIRE","",""
"12/30/2017","11:06","217CR0033511","MEDICAL - EMERGENCY","MEDICAL - EMERGENCY","1216 W GOLD ST","",""
"12/30/2017","11:15","217CR0033512","ACCIDENT-MHP","ACCIDENT-MHP","I90 MM 214","",""
"12/30/2017","11:21","217CR0033513","WELFARE CHECK","WELFARE CHECK","530 EDISON","",""
"12/30/2017","11:23","217CR0033514","ALARM - BURGLARY","ALARM - BURGLARY","************","",""
"12/30/2017","11:32","217CR0033515","ALARM - MEDICAL","ALARM - MEDICAL","************","",""
"12/30/2017","12:21","217CR0033516","CITIZEN AID","CITIZEN AID","1115 WATERLINE RD","",""
"12/30/2017","13:32","217CR0033518","THEFT","THEFT, SHOPLIFT","3901 HARRISON AVE","",""
"12/30/2017","13:35","217CR0033517","T/S","NO LIABILITY INSURANCE IN EFF.","MONTANA ST AND SECOND ST","",""
"12/30/2017","13:42","217CR0033519","SUSPICIOUS ACTIVITY","SUSPICIOUS ACTIVITY","1900 BLK DEWEY","",""
"12/30/2017","13:52","217CR0033520","SUSPICIOUS ACTIVITY","SUSPICIOUS ACTIVITY","ELIZABETH WARREN AND HARRISON","",""
"12/30/2017","14:26","217CR0033521","THEFT","THEFT","2084 HARRISON AV","",""
"12/30/2017","14:29","217CR0033522","UNKNOWN PROBLEM","UNKNOWN PROBLEM","1125 S MAIN ST #315","",""
"12/30/2017","15:05","217CR0033523","SUSPICIOUS ACTIVITY","SUSPICIOUS ACTIVITY","3901 HARRISON AVE","",""
"12/30/2017","15:27","217CR0033524","ASSIST OTHER AGENCY","ASSIST OTHER AGENCY","I90 MM 217 EBND","",""
"12/30/2017","15:28","217CR0033525","SUSPICIOUS ACTIVITY","SUSPICIOUS ACTIVITY","3901 HARRISON AVE","",""
"12/30/2017","15:28","217CR0033526","STOLEN VEHICLE","STOLEN VEHICLE","1375 JOY LANE","",""
"12/30/2017","15:46","217CR0033527","SUSPICIOUS ACTIVITY","SUSPICIOUS ACTIVITY","910 S MONTANA ST","",""
"12/30/2017","16:23","217CR0033528","CIVIL STANDBY","CIVIL STANDBY","19 W LAPLATTE","",""
"12/30/2017","16:57","217CR0033529","FOUND PROPERTY","FOUND PROPERTY","************","",""
"12/30/2017","17:18","217CR0033530","DISTURBANCE","DISTURBANCE","176 TRINITY LOOP","",""
"12/30/2017","17:28","217CR0033531","CITIZEN AID","CITIZEN AID","RIB // CHOP HOUSE","",""
"12/30/2017","17:42","217CR0033532","WELFARE CHECK","WELFARE CHECK","3525 QUINCY ST","",""
"12/30/2017","17:57","217CR0033533","PARKING COMPLAINT","PARKING COMPLAINT","939 N MAIN ST","",""
"12/30/2017","18:30","217CR0033534","SUSPICIOUS ACTIVITY","SUSPICIOUS ACTIVITY","4000 BLK S ARIZONA","",""
"12/30/2017","18:40","217CR0033535","T/S","T/S","GEORGE ST AND MONTANA ST","",""
"12/30/2017","18:52","217CR0033536","LED BUSINESS","PFMA - REASONABLE APPREHENSION","1 E BROADWAY","ARREST(s) MADE",""
"12/30/2017","19:09","217CR0033537","T/S","T/S","E PARK AND OKLAHOMA","",""
"12/30/2017","20:28","217CR0033538","ATL","ATL","200 BLK E ALUMINUM","",""
"12/30/2017","20:37","217CR0033539","THEFT","THEFT, SHOPLIFT","3901 HARRISON AVE","ARREST(s) MADE",""
"12/30/2017","20:44","217CR0033540","HIT AND RUN","HIT AND RUN, UNATTENDED VEHICL","223 N JACKSON ST","",""
"12/30/2017","20:54","217CR0033541","FRAUD","FRAUD","255 N ALASKA","",""
"12/30/2017","20:56","217CR0033542","ANIMAL COMPLAINT","ANIMAL COMPLAINT","300 BLK HOLMES AVE","",""
"12/30/2017","21:00","217CR0033543","SUSPICIOUS ACTIVITY","SUSPICIOUS ACTIVITY","1000 E FRONT ST","",""
"12/30/2017","21:21","217CR0033544","PARKING COMPLAINT","PARKING COMPLAINT","2509 S MAIN ST","",""
"12/30/2017","21:30","217CR0033545","ALARM - BURGLARY","ALARM - BURGLARY","************","",""
"12/30/2017","21:52","217CR0033546","T/S","T/S","HARRISON AND HOLMES","",""
"12/30/2017","22:01","217CR0033547","JUVENILE MISC","JUVENILE MISC","************","",""
"12/30/2017","22:23","217CR0033548","T/S","T/S","MAIN AND IOWA AVE","",""
"12/30/2017","23:01","217CR0033549","T/S","T/S","GRANITE AND ALASKA","",""
"12/30/2017","23:09","217CR0033550","T/S","T/S","CLARK AND PLATINUM","",""
"12/30/2017","23:15","217CR0033551","T/S","NO LIABILITY INSURANCE IN EFF.","MARCIA AND LOWELL","",""
"12/30/2017","23:21","217CR0033552","T/S","DUI DRUGS OR ALCOHOL","MERCURY ST AND WYOMING ST","ARREST(s) MADE",""
"12/30/2017","23:40","217CR0033553","STOLEN VEHICLE","STOLEN VEHICLE","1203 HOWARD SILVERBOW AC","",""
"12/31/2017","00:05","217CR0033554","DISTURBANCE","DISTURBANCE","2909 CARTER","",""
"12/31/2017","00:09","217CR0033555","SUSPICIOUS ACTIVITY","SUSPICIOUS ACTIVITY","GOLD AND COLORADO","",""
"12/31/2017","00:59","217CR0033556","SUSPICIOUS ACTIVITY","SUSPICIOUS ACTIVITY","1801 FARRAGUT","",""
"12/31/2017","01:43","217CR0033557","MEDICAL - EMERGENCY","MEDICAL - EMERGENCY","2106 SILVERBOW BLVD","",""
"12/31/2017","02:34","217CR0033558","VANDALISM/CRIMINAL MISCHIEF","VANDALISM/CRIMINAL MISCHIEF","3025 EAGLE ST","",""
"12/31/2017","02:54","217CR0033559","SUSPICIOUS ACTIVITY","SUSPICIOUS ACTIVITY","MONTANA AND PARK","",""
"12/31/2017","03:12","217CR0033560","DISTURBANCE","POSSESS ALCOHOL OR INTOXICANT","3220 HANNIBAL ST","",""
"12/31/2017","03:33","217CR0033561","ATL","ATL","901 S WASHINGTON","",""
"12/31/2017","03:56","217CR0033562","SUSPICIOUS ACTIVITY","SUSPICIOUS ACTIVITY","1370 HARRISON TOWN PUMP","",""
"12/31/2017","04:09","217CR0033563","DISTURBANCE","DISTURBANCE","2637 PRINCETON","",""
"12/31/2017","05:08","217CR0033564","UNKNOWN PROBLEM","UNKNOWN PROBLEM","519 W ALUMINUM","",""
"12/31/2017","07:06","217CR0033565","ANIMAL COMPLAINT","ANIMAL COMPLAINT","HANSON RD AND WATHENA DR","",""
"12/31/2017","07:27","217CR0033566","TRAFFIC","TRAFFIC","2ND ST AND MONTANA ST","",""
"12/31/2017","08:38","217CR0033567","STOLEN VEHICLE","MOTOR VEHICLE THEFT","1125 S MAIN #201","",""
"12/31/2017","09:21","217CR0033568","MEDICAL - EMERGENCY","MEDICAL - EMERGENCY","100 GARDENS WAY #101","",""
"12/31/2017","09:30","217CR0033569","CIVIL PAPER SERVICE","CIVIL PAPER SERVICE","2620 SILVER BOW BLVD","",""
"12/31/2017","09:39","217CR0033570","CIVIL PAPER SERVICE","CIVIL PAPER SERVICE","2660 COLUSA","",""
"12/31/2017","09:46","217CR0033571","WANTED PERSON","CRIMINAL CONTEMPT","2040 OREGON AVE","ARREST(s) MADE",""
"12/31/2017","09:51","217CR0033572","SUSPICIOUS ACTIVITY","SUSPICIOUS ACTIVITY","901 E FRONT","",""
"12/31/2017","10:02","217CR0033573","MEDICAL - EMERGENCY","MEDICAL - EMERGENCY","2217 WALNUT","",""
"12/31/2017","11:03","217CR0033574","CITIZEN AID","CITIZEN AID","1938 GAYLORD","",""
"12/31/2017","12:13","217CR0033575","CIVIL PAPER SERVICE","CIVIL PAPER SERVICE","1816 S ARIZONA","",""
"12/31/2017","12:21","217CR0033576","CIVIL PAPER SERVICE","CIVIL PAPER SERVICE","421 W IRON ST","",""
"12/31/2017","12:26","217CR0033577","ANIMAL COMPLAINT","ANIMAL COMPLAINT","1200 BLK WATERLINE RD","",""
"12/31/2017","12:27","217CR0033578","CIVIL PAPER SERVICE","CIVIL PAPER SERVICE","209 S CRYSTAL ST","",""
"12/31/2017","12:42","217CR0033579","CIVIL PAPER SERVICE","CIVIL PAPER SERVICE","519 W GALENA","",""
"12/31/2017","12:49","217CR0033580","CIVIL PAPER SERVICE","CIVIL PAPER SERVICE","706 W GALENA","",""
"12/31/2017","12:53","217CR0033581","CIVIL PAPER SERVICE","CIVIL PAPER SERVICE","625 W PARK","",""
"12/31/2017","13:05","217CR0033582","TRAFFIC HAZARD","TRAFFIC HAZARD","3000 BLK CONTINENTAL","",""
"12/31/2017","13:09","217CR0033583","MEDICAL - EMERGENCY","MEDICAL - EMERGENCY","1933 FLORIDA","",""
"12/31/2017","13:24","217CR0033584","DRUGS","DRUGS","************","",""
"12/31/2017","13:25","217CR0033585","ACCIDENT-MHP","ACCIDENT-MHP","I90 WB 188","",""
"12/31/2017","13:39","217CR0033586","UNWANTED PERSON","UNWANTED PERSON","************","",""
"12/31/2017","14:04","217CR0033587","DISTURBANCE","CRIMINAL CONTEMPT","207 W PARK ST","ARREST(s) MADE",""
"12/31/2017","14:50","217CR0033588","SUICIDE ATTEMPT/THREAT","ASSAULT WITH WEAPON","737 W PARK","ARREST(s) MADE",""
"12/31/2017","15:14","217CR0033589","ATL","ATL","MERCURY AND MONTANA","",""
"12/31/2017","15:30","217CR0033590","ACCIDENT","INTER. W/TRAFFIC WHILE BACKING","922 S COLORADO","",""
"12/31/2017","15:59","217CR0033591","MEDICAL - EMERGENCY","MEDICAL - EMERGENCY","155 W QUARTZ","",""
"12/31/2017","16:04","217CR0033592","UNWANTED PERSON","POSSESS DRUG PARAPHERNALIA","12205 NISSLER ROAD","ARREST(s) MADE",""
"12/31/2017","17:23","217CR0033593","DISTURBANCE","DISTURBANCE","1023 NEVADA","",""
"12/31/2017","17:37","217CR0033594","THEFT","THEFT, SHOPLIFT","3901 HARRISON AVE","",""
"12/31/2017","18:12","217CR0033595","DISTURBANCE","DISTURBANCE","963 LEWISHON #A","",""
"12/31/2017","18:41","217CR0033596","WANTED PERSON","CRIMINAL CONTEMPT","200 FLINT CREEK RANCH RD","ARREST(s) MADE",""
"12/31/2017","18:51","217CR0033597","ATL","ATL","3700 HARRISON AVE","",""
"12/31/2017","19:19","217CR0033598","T/S","T/S","ELIZABETH WARREN AND FORD WY","",""
"12/31/2017","19:22","217CR0033599","MEDICAL - EMERGENCY","MEDICAL - EMERGENCY","2900 ELM ST #3","",""
"12/31/2017","19:51","217CR0033600","HARASSMENT","HARASSMENT","4001 HANCOCK AV","",""
"12/31/2017","20:14","217CR0033601","SUSPICIOUS ACTIVITY","SUSPICIOUS ACTIVITY","738 N MONTANA","",""
"12/31/2017","20:43","217CR0033602","BUSINESS CHECK","BUSINESS CHECK","531 S MONTANA","",""
"12/31/2017","20:49","217CR0033603","WANTED PERSON","CRIMINAL CONTEMPT","531 S MONTANA","ARREST(s) MADE",""
"12/31/2017","21:04","217CR0033604","FIRE - STRUCTURE","FIRE - STRUCTURE","LEIPSIG // BADEN ST","",""
"12/31/2017","21:06","217CR0033605","CITIZEN AID","CITIZEN AID","1000 BLK SOUTH MONTANA","",""
"12/31/2017","21:15","217CR0033606","DISTURBANCE","DISTURBANCE","963 LEWISOHN APT C","",""
"12/31/2017","21:19","217CR0033607","STOLEN VEHICLE","STOLEN VEHICLE","1375 JOY LANE","",""
"12/31/2017","21:23","217CR0033608","T/S","T/S @ CONTINENTAL DR AND FAIRMONT ST","CONTINENTAL DR AND FAIRMONT ST","",""
"12/31/2017","21:34","217CR0033609","ALL OTHER","ALL OTHER","3400 HILL AVE APT 1008","",""
"12/31/2017","21:51","217CR0033610","DISTURBANCE","DISTURBANCE","2050 JOHNS AVE","",""
"12/31/2017","22:05","217CR0033612","T/S","DUI DRUGS OR ALCOHOL","FLORENCE AVE AND GEORGE ST","ARREST(s) MADE",""
"12/31/2017","22:05","217CR0033611","T/S","T/S @ ","","",""
"12/31/2017","22:16","217CR0033613","T/S","T/S","PARK ST AND OHIO","",""
"12/31/2017","22:20","217CR0033614","WELFARE CHECK","WELFARE CHECK","2523 PRINCETON","",""
"12/31/2017","22:27","217CR0033615","T/S","T/S","PARK AND OHIO","",""
"12/31/2017","22:35","217CR0033616","DUMPING","DUMPING","233 MISSOULA AVE","",""
"12/31/2017","22:40","217CR0033617","UNWANTED PERSON","UNWANTED PERSON","************","",""
"12/31/2017","22:44","217CR0033619","PARKING COMPLAINT","PARKING COMPLAINT","BROADWAY AND MAIN","",""
"12/31/2017","22:45","217CR0033618","WELFARE CHECK","WELFARE CHECK","121 BLUE WING ST","",""
"12/31/2017","22:47","217CR0033620","ACCIDENT","ACCIDENT","1653 HARRISON AVE","",""
"12/31/2017","22:53","217CR0033621","THEFT","THEFT","912 W GALENA","",""
"12/31/2017","23:17","217CR0033622","SUSPICIOUS ACTIVITY","SUSPICIOUS ACTIVITY","1125 S MAIN ST APT 105","",""
"12/31/2017","23:20","217CR0033623","T/S","T/S","800 BLK COPPER","",""
"12/31/2017","23:29","217CR0033624","BUSINESS CHECK","BUSINESS CHECK","1370 HARRISON","",""
"12/31/2017","23:42","217CR0033625","DISTURBANCE","PROTECTIVE CUSTODY","643 S MAIN ST","ARREST(s) MADE",""
"12/31/2017","23:43","217CR0033626","THEFT","THEFT FROM MOTOR VEHICLE","801 S UTAH AVE","",""
"12/31/2017","23:57","217CR0033627","ATL","ATL","1302 E SECOND","",""
"01/01/2018","00:08","218CR0000001","T/S","DRIVE WHILE SUSP. OR REVOKED","MAIN AND PLATINUM","",""
"01/01/2018","00:15","218CR0000002","ASSIST OTHER AGENCY","ASSIST OTHER AGENCY","I90 MM 256 WB","",""
"01/01/2018","00:23","218CR0000003","ASSIST OTHER AGENCY","ASSIST OTHER AGENCY","3500 HARRISON SILVERBOW PIZZA","",""
"01/01/2018","00:28","218CR0000004","DISTURBANCE","DISTURBANCE","400 S CLARK ST","",""
"01/01/2018","00:48","218CR0000005","BUSINESS CHECK","BUSINESS CHECK","2 E GALENA ST","",""
"01/01/2018","00:57","218CR0000006","UNKNOWN PROBLEM","UNKNOWN PROBLEM","PARK ST AND MAIN ST","",""
"01/01/2018","01:05","218CR0000008","DISTURBANCE","DISTURBANCE","1801 FLORENCE","",""
"01/01/2018","01:05","218CR0000007","T/S","DUI DRUGS OR ALCOHOL","ARIZONA AND MERCURY","ARREST(s) MADE",""
"01/01/2018","01:10","218CR0000009","SUSPICIOUS ACTIVITY","SUSPICIOUS ACTIVITY","926 S COLORDO","",""
"01/01/2018","01:20","218CR0000010","DISTURBANCE","DISTURBANCE","1700 HARRISON AVE","",""
"01/01/2018","01:25","218CR0000011","SUSPICIOUS ACTIVITY","SUSPICIOUS ACTIVITY","916 E FRONT GILLIGANS","",""
"01/01/2018","01:32","218CR0000012","DISTURBANCE","FAILURE TO DISPERSE","4655 HARRISON AVE","ARREST(s) MADE",""
"01/01/2018","01:34","218CR0000013","DISTURBANCE-NOISE","DISTURBANCE-NOISE","2400 BLK ST ANN ST","",""
"01/01/2018","01:42","218CR0000014","DISTURBANCE","DISTURBANCE","2 E GALENA ST","",""
"01/01/2018","01:47","218CR0000015","INTOXICATED PERSON","INTOXICATED PERSON","BUTTE HIGH GYM","",""
"01/01/2018","01:48","218CR0000016","DISTURBANCE","DISTURBANCE","60 E BROADWAY","",""
"01/01/2018","02:00","218CR0000017","SUSPICIOUS ACTIVITY","SUSPICIOUS ACTIVITY","501 S MONTANA","",""
"01/01/2018","02:19","218CR0000018","DISTURBANCE","PFMA - REASONABLE APPREHENSION","1917 WALNUT ST","ARREST(s) MADE",""
"01/01/2018","02:23","218CR0000019","T/S","AGGRAVATED DUI","MAIN AND PLATINUM","ARREST(s) MADE",""
"01/01/2018","02:25","218CR0000020","ASSIST OTHER AGENCY","ASSIST OTHER AGENCY","A ST AND HARRISON","",""
"01/01/2018","02:54","218CR0000021","UNWANTED PERSON","UNWANTED PERSON","************","",""
"01/01/2018","04:12","218CR0000022","DISTURBANCE-NOISE","DISTURBANCE-NOISE","815 W PARK ST #2","",""
"01/01/2018","04:32","218CR0000023","DISTURBANCE","OUT OF JURISDICTION - MISD","701 W GALENA APT 2","",""
"01/01/2018","05:13","218CR0000024","INFORMATION ONLY","INFORMATION ONLY","2020 ELM ST","",""
"01/01/2018","05:19","218CR0000025","JUVENILE MISC","JUVENILE MISC","************","",""
"01/01/2018","05:29","218CR0000026","ATL","ATL","DEWEY AND HARRISON","",""
"01/01/2018","06:08","218CR0000027","MEDICAL - EMERGENCY","MEDICAL - EMERGENCY","2803 ELM ST","",""
"01/01/2018","06:40","218CR0000028","DISTURBANCE","DISTURBANCE","620 ILLINOIS","",""
"01/01/2018","06:41","218CR0000029","JUVENILE MISC","JUVENILE MISC","************","",""
"01/01/2018","08:31","218CR0000030","T/S","T/S @ GRANITE AND MAIN","GRANITE AND MAIN","",""
"01/01/2018","08:44","218CR0000031","MEDICAL - EMERGENCY","MEDICAL - EMERGENCY","155 W QUARTZ","",""
"01/01/2018","09:04","218CR0000033","CITIZEN AID","CITIZEN AID","1514 N B ST","",""
"01/01/2018","09:05","218CR0000032","MEDICAL - EMERGENCY","MEDICAL - EMERGENCY","155 W QUARTZ","",""
"01/01/2018","09:36","218CR0000034","ALARM - FIRE","ALARM - FIRE","1019 W PORPHYRY","",""
"01/01/2018","09:46","218CR0000035","THEFT","THEFT, ALL OTHERS","312 W ALUMINUM ST","",""
"01/01/2018","09:56","218CR0000036","ACCIDENT","ACCIDENT","1300 BLK HARRISON","",""
"01/01/2018","10:33","218CR0000037","T/S","T/S","MONTANA AND GOLD","",""
"01/01/2018","10:59","218CR0000038","THEFT","THEFT OF SERVICES","2100 CORNELL","",""
"01/01/2018","11:11","218CR0000039","T/S","T/S @ FARRAGUT AND GRAND","FARRAGUT AND GRAND","",""
"01/01/2018","11:12","218CR0000040","ASSIST OTHER AGENCY","ASSIST OTHER AGENCY","249 W PACIFIC ST","",""
"01/01/2018","11:16","218CR0000041","SUSPICIOUS ACTIVITY","SUSPICIOUS ACTIVITY","205 W GRANITE #506","",""
"01/01/2018","11:54","218CR0000042","MEDICAL - EMERGENCY","MEDICAL - EMERGENCY","100 ARMS LOOP #1,","",""
"01/01/2018","12:27","218CR0000043","MISSING PERSON","MISSING PERSON","************","",""
"01/01/2018","12:50","218CR0000044","ALARM - BURGLARY","ALARM - BURGLARY","************","",""
"01/01/2018","13:00","218CR0000045","MEDICAL - EMERGENCY","MEDICAL - EMERGENCY","155 W QUARTZ","",""
"01/01/2018","14:07","218CR0000046","ALARM - BURGLARY","ALARM - BURGLARY","************","",""
"01/01/2018","14:21","218CR0000047","SUSPICIOUS ACTIVITY","SUSPICIOUS ACTIVITY","BSB GUN RANGE","",""
"01/01/2018","14:43","218CR0000048","ASSIST OTHER AGENCY","ASSIST OTHER AGENCY","I15 MM 171 SB","",""
"01/01/2018","15:01","218CR0000049","CITIZEN AID","BURGLARY, RESIDENCE","1000 BROWNS GULCH","",""
"01/01/2018","15:14","218CR0000050","ALL OTHER","ALL OTHER","312 W ALUMINUM ST","",""
"01/01/2018","15:35","218CR0000051","T/S","T/S @ GRAND AND CAROLINA","GRAND AND CAROLINA","",""
"01/01/2018","15:50","218CR0000052","T/S","T/S @ HOWARD AND GRAND","HOWARD AND GRAND","",""
"01/01/2018","16:03","218CR0000053","RESTRAINING ORDER VIOLATION","VIOLATION OF PROTECTION ORDER","3400 HILL APT 1005","",""
"01/01/2018","16:17","218CR0000054","T/S","T/S @ LEXINGTON AVE AND ROWE RD","LEXINGTON AVE AND ROWE RD","",""
"01/01/2018","16:19","218CR0000055","ACCIDENT","ACCIDENT","SAMPSON ST AND UTAH","",""
"01/01/2018","16:20","218CR0000056","T/S","T/S @ MASS AND COBBAN","MASS AND COBBAN","",""
"01/01/2018","16:27","218CR0000057","MISSING PERSON","MISSING PERSON","************","",""
"01/01/2018","16:40","218CR0000058","ANIMAL COMPLAINT-BITE","ANIMAL COMPLAINT-BITE","901 S WASHINGTON #26","",""
"01/01/2018","16:43","218CR0000059","MEDICAL - EMERGENCY","MEDICAL - EMERGENCY","550 E MERCURY MAC CENTER","",""
"01/01/2018","17:46","218CR0000060","HIT AND RUN","HIT AND RUN","4915 HARRISON AVE","",""
"01/01/2018","18:02","218CR0000061","TRAFFIC HAZARD","TRAFFIC HAZARD","MADISON AND SHIELDS","",""
"01/01/2018","18:08","218CR0000062","DISTURBANCE-NOISE","DISTURBANCE-NOISE","712 SILVER BOW HOMES","",""
"01/01/2018","18:34","218CR0000064","T/S","T/S @ HARRISON AVE AND DEWEY BLVD","HARRISON AVE AND DEWEY BLVD","",""
"01/01/2018","18:34","218CR0000065","T/S","T/S","","",""
"01/01/2018","19:29","218CR0000066","T/S","T/S @ GEORGE ST AND MONTANA ST","GEORGE ST AND MONTANA ST","",""
"01/01/2018","19:36","218CR0000067","WELFARE CHECK","AGGRAVATED BURGLARY","1852 FLORIDA","ARREST(s) MADE",""
"01/01/2018","20:08","218CR0000068","SUSPICIOUS ACTIVITY","SUSPICIOUS ACTIVITY","626 S IDAHO","",""
"01/01/2018","20:45","218CR0000069","UNWANTED PERSON","UNWANTED PERSON","************","",""
"01/01/2018","20:49","218CR0000070","ALARM - BURGLARY","ALARM - BURGLARY","************","",""
"01/01/2018","20:53","218CR0000071","DISTURBANCE","DISTURBANCE","112 N MAIN","",""
"01/01/2018","22:06","218CR0000072","UNWANTED PERSON","UNWANTED PERSON","************","",""
"01/01/2018","22:11","218CR0000073","SUSPICIOUS ACTIVITY","SUSPICIOUS ACTIVITY","225 N ALASKA","",""
"01/01/2018","22:12","218CR0000074","MEDICAL - EMERGENCY","MEDICAL - EMERGENCY","2400 BLK CONTINENTAL DR","",""
"01/01/2018","22:29","218CR0000075","RESTRAINING ORDER VIOLATION","VIOLATION OF PROTECTION ORDER","2006 UTAH AVE","ARREST(s) MADE",""
"01/01/2018","22:59","218CR0000076","T/S","T/S","HARRISON AND HARVARD","",""
"01/01/2018","23:20","218CR0000077","DOMESTIC ABUSE","DOMESTIC ABUSE","************","",""
"01/01/2018","23:29","218CR0000078","UNWANTED PERSON","UNWANTED PERSON","************","",""
"01/02/2018","00:22","218CR0000079","WELFARE CHECK","WELFARE CHECK","12 LAIRD","",""
"01/02/2018","01:51","218CR0000080","DISTURBANCE","DISTURBANCE","207 W PARK APT","",""
"01/02/2018","01:52","218CR0000081","WELFARE CHECK","WELFARE CHECK","227 S WASHINGTON","",""
"01/02/2018","03:17","218CR0000082","T/S","T/S @ GARLAND AND HARRISON AVE","GARLAND AND HARRISON AVE","",""
"01/02/2018","03:25","218CR0000083","DISTURBANCE","DISTURBANCE","1125 S MAIN APT115","",""
"01/02/2018","03:26","218CR0000084","MEDICAL - EMERGENCY","MEDICAL - EMERGENCY","834 W QUARTZ","",""
"01/02/2018","03:30","218CR0000085","SUSPICIOUS ACTIVITY","SUSPICIOUS ACTIVITY","20 S MONTANA ST","",""
"01/02/2018","04:11","218CR0000086","UNWANTED PERSON","UNWANTED PERSON","************","",""
"01/02/2018","04:17","218CR0000087","MEDICAL - EMERGENCY","MEDICAL - EMERGENCY","709 PLACER ST","",""
"01/02/2018","04:34","218CR0000088","MEDICAL - EMERGENCY","MEDICAL - EMERGENCY","3120 BAYARD","",""
"01/02/2018","04:38","218CR0000089","MEDICAL - EMERGENCY","MEDICAL - EMERGENCY","1125 S MAIN #115","",""
"01/02/2018","05:00","218CR0000090","ACCIDENT","ACCIDENT","225 N ALASKA","",""
 

BSB police reports ending in December 29, 2017

"12/28/2017","00:01","217CR0033263","ALL OTHER","ALL OTHER","4701 HARRISON THRIFTWAY","",""
"12/28/2017","00:22","217CR0033264","TRAFFIC HAZARD","CARELESS DRIVING","ARIZONA ST AND PARK ST","",""
"12/28/2017","00:35","217CR0033265","MEDICAL - EMERGENCY","MEDICAL - EMERGENCY","721 HOBSON #4","",""
"12/28/2017","00:59","217CR0033266","SUICIDE ATTEMPT/THREAT","SUICIDE ATTEMPT/THREAT","************","",""
"12/28/2017","01:25","217CR0033267","SUSPICIOUS ACTIVITY","SUSPICIOUS ACTIVITY","10 BLK N MAIN","",""
"12/28/2017","01:33","217CR0033268","DISTURBANCE","DISTURBANCE","1938 GAYLORD","",""
"12/28/2017","04:30","217CR0033269","T/S","T/S","HARRISON AND CORNELL","",""
"12/28/2017","05:37","217CR0033270","PROWLER","PROWLER","3218 EDWARDS","",""
"12/28/2017","05:58","217CR0033271","TRAFFIC HAZARD","TRAFFIC HAZARD","PLATINUM AND IDAHO","",""
"12/28/2017","06:05","217CR0033272","SUSPICIOUS ACTIVITY","SUSPICIOUS ACTIVITY","2001 DEWEY MAGIC DIAMOND CASIN","",""
"12/28/2017","08:02","217CR0033274","ACCIDENT","ACCIDENT","EXCELSIOR AND WOOLMAN","",""
"12/28/2017","08:14","217CR0033275","ALARM - FIRE","ALARM - FIRE","3745 HARRISON","",""
"12/28/2017","08:44","217CR0033276","LED BUSINESS","LED BUSINESS","155 W GRANITE ST","",""
"12/28/2017","08:44","217CR0033277","ATL","ATL","2711 HARRISON AVE","",""
"12/28/2017","08:46","217CR0033278","LED BUSINESS","LED BUSINESS","155 W GRANITE ST","",""
"12/28/2017","08:48","217CR0033279","DETENTION BUSINESS","DETENTION BUSINESS","************","",""
"12/28/2017","09:58","217CR0033280","CITIZEN AID","CITIZEN AID","3400 HILL AVE #1105","",""
"12/28/2017","10:02","217CR0033281","THEFT","THEFT, SHOPLIFT","310 W FRONT ST","",""
"12/28/2017","10:26","217CR0033282","BURGLARY","BURGLARY, RESIDENCE","940 LEXINGTON AVE","",""
"12/28/2017","10:55","217CR0033283","DRUGS","DRUGS","************","",""
"12/28/2017","10:58","217CR0033284","CHILD ABUSE","CHILD ABUSE","************","",""
"12/28/2017","11:04","217CR0033285","ACCIDENT-MHP","ACCIDENT-MHP","I90 MP 214 EB","",""
"12/28/2017","11:04","217CR0033286","ACCIDENT-MHP","ACCIDENT-MHP","I15 MM 124 SB","",""
"12/28/2017","11:19","217CR0033287","DISTURBANCE","DISTURBANCE","400 S CLARK ST","",""
"12/28/2017","11:34","217CR0033288","THEFT","THEFT","3901 HARRISON AVE","",""
"12/28/2017","11:42","217CR0033289","SUSPICIOUS ACTIVITY","SUSPICIOUS ACTIVITY","3152 S MAIN","",""
"12/28/2017","12:08","217CR0033290","THEFT","THEFT","3901 HARRISON AVE","",""
"12/28/2017","12:37","217CR0033291","SUSPICIOUS ACTIVITY","DISORDERLY CONDUCT","FRONT AND IOWA","",""
"12/28/2017","12:42","217CR0033292","DISTURBANCE","DISTURBANCE","4034 ELIZABETH WARREN APT 114","",""
"12/28/2017","12:51","217CR0033293","BURGLARY","BURGLARY, RESIDENCE","228 HAIL COLUMBIA GULCH","",""
"12/28/2017","12:54","217CR0033294","DETENTION BUSINESS","DETENTION BUSINESS","************","",""
"12/28/2017","13:03","217CR0033295","DETENTION BUSINESS","DETENTION BUSINESS","************","",""
"12/28/2017","13:16","217CR0033296","TRAFFIC","TRAFFIC","600 BLK S MAIN","",""
"12/28/2017","13:16","217CR0033297","DOMESTIC ABUSE","CRIMINAL MISCHIEF","225 N ALASKA ST","",""
"12/28/2017","13:26","217CR0033298","CITIZEN AID","CITIZEN AID","33 E IRON ST","",""
"12/28/2017","13:26","217CR0033299","TRAFFIC HAZARD","TRAFFIC HAZARD","GALENA AND GIRARD","",""
"12/28/2017","13:59","217CR0033300","VANDALISM/CRIMINAL MISCHIEF","VANDALISM/CRIMINAL MISCHIEF","","",""
"12/28/2017","14:06","217CR0033301","FIRE - OTHER","FIRE - OTHER","AIRPORT/BERT MOONEY","",""
"12/28/2017","14:24","217CR0033302","ACCIDENT","ACCIDENT","COBBAN ST AND FLORENCE AVE","",""
"12/28/2017","14:30","217CR0033303","THEFT","THEFT","225 N ALASKA ST","",""
"12/28/2017","14:31","217CR0033304","THEFT","THEFT","1920 S ARIZONA ST","",""
"12/28/2017","14:51","217CR0033305","ALL OTHER","VIOLATION OF PROTECTION ORDER","3001 HARRISON AVE","ARREST(s) MADE",""
"12/28/2017","15:08","217CR0033306","ALARM - BURGLARY","ALARM - BURGLARY","************","",""
"12/28/2017","15:08","217CR0033307","WANTED PERSON","CRIMINAL CONTEMPT","JUDGE KRUEGERS COURT","ARREST(s) MADE",""
"12/28/2017","15:17","217CR0033308","PARKING COMPLAINT","PARKING COMPLAINT","1912 MONROE","",""
"12/28/2017","15:37","217CR0033310","WELFARE CHECK","WELFARE CHECK","667 S WASHINGTON ST","",""
"12/28/2017","15:39","217CR0033309","ALL OTHER","ALL OTHER","5100 S WARREN #9","",""
"12/28/2017","15:49","217CR0033311","T/S","T/S @ ALUMINUM ST AND MONTANA ST","ALUMINUM ST AND MONTANA ST","",""
"12/28/2017","15:58","217CR0033312","PARKING COMPLAINT","PARKING COMPLAINT","649 S MONTANA","",""
"12/28/2017","15:58","217CR0033313","MEDICAL - ASSIST","MEDICAL - ASSIST","************","",""
"12/28/2017","16:16","217CR0033314","UNWANTED PERSON","UNWANTED PERSON","************","",""
"12/28/2017","16:18","217CR0033315","ALL OTHER","ALL OTHER","390 LITTLE BASIN CREEK ROAD","",""
"12/28/2017","16:29","217CR0033316","INTIMIDATION","INTIMIDATION","1864 DEWEY BLVD","",""
"12/28/2017","16:33","217CR0033317","WANTED PERSON","CRIMINAL CONTEMPT","608 W DALY ST","ARREST(s) MADE",""
"12/28/2017","16:35","217CR0033318","ANIMAL COMPLAINT","ANIMAL COMPLAINT","176 TRINITY LOOP","",""
"12/28/2017","16:41","217CR0033319","ACCIDENT- INJURY(MHP)","ACCIDENT- INJURY(MHP)","I15 MM 113 SB","",""
"12/28/2017","16:47","217CR0033320","W/PRISONER","W/PRISONER","","",""
"12/28/2017","16:47","217CR0033321","ALARM - BURGLARY","ALARM - BURGLARY","************","",""
"12/28/2017","16:49","217CR0033322","ALARM - BURGLARY","ALARM - BURGLARY","************","",""
"12/28/2017","17:02","217CR0033323","UNWANTED PERSON","CRIMINAL TRESPASS TO PROPERTY","2711 HARRISON","ARREST(s) MADE",""
"12/28/2017","17:12","217CR0033324","ALL OTHER","ALL OTHER","225 N ALASKA ST","",""
"12/28/2017","17:27","217CR0033325","ACCIDENT","ACCIDENT","EXCELSIOR AND I115 ON RAMP","",""
"12/28/2017","17:31","217CR0033326","THEFT","THEFT, ALL OTHERS","201 HOBSON #2","",""
"12/28/2017","17:33","217CR0033327","ALL OTHER","ALL OTHER","OREGON AND MARCIA","",""
"12/28/2017","17:36","217CR0033328","ACCIDENT","ACCIDENT","ELIZABETH WARREN AND HARRISON","",""
"12/28/2017","18:36","217CR0033329","ANIMAL COMPLAINT","ANIMAL COMPLAINT","I90 MM 214 WBND","",""
"12/28/2017","18:40","217CR0033330","JUVENILE MISC","JUVENILE MISC","************","",""
"12/28/2017","19:00","217CR0033331","BUSINESS CHECK","BUSINESS CHECK","531 S MONTANA","",""
"12/28/2017","19:08","217CR0033332","TRAFFIC","TRAFFIC","LUPINE // GLACIER LILLY","",""
"12/28/2017","19:09","217CR0033333","T/S","T/S @ DEWEY BLVD AND LEXINGTON AVE","DEWEY BLVD AND LEXINGTON AVE","",""
"12/28/2017","19:11","217CR0033334","WELFARE CHECK","WELFARE CHECK","PARK ST AND WASHINGTON ST","",""
"12/28/2017","19:31","217CR0033335","ALL OTHER","ALL OTHER","405 W MERCURY APT A","",""
"12/28/2017","19:38","217CR0033336","INTOXICATED PERSON","INTOXICATED PERSON","PARK ST AND WASHINGTON ST","",""
"12/28/2017","19:42","217CR0033337","ALARM - FIRE","ALARM - FIRE","1125 S MAIN ST","",""
"12/28/2017","19:47","217CR0033338","TRAFFIC HAZARD","TRAFFIC HAZARD","COLORADO AND GOLD","",""
"12/28/2017","19:59","217CR0033339","T/S","T/S","MAIN ST AND PLATINUM ST","",""
"12/28/2017","20:00","217CR0033340","MEDICAL - EMERGENCY","MEDICAL - EMERGENCY","PARK ST AND WASHINGTON ST","",""
"12/28/2017","20:18","217CR0033341","WANTED PERSON","CRIMINAL CONTEMPT","225 N ALASKA ST","ARREST(s) MADE",""
"12/28/2017","20:39","217CR0033342","MEDICAL - EMERGENCY","MEDICAL - EMERGENCY","212 SILVER BOW HOMES","",""
"12/28/2017","20:41","217CR0033343","CRIMINAL TRESPASS","CRIMINAL TRESPASS","60 W GALENA POST OFFICE","",""
"12/28/2017","20:49","217CR0033344","SUSPICIOUS ACTIVITY","SUSPICIOUS ACTIVITY","PLATINUM AND MONTANA","",""
"12/28/2017","21:08","217CR0033345","DISTURBANCE","RESISTING ARREST","400 S CLARK ST","ARREST(s) MADE",""
"12/28/2017","21:11","217CR0033346","TRAFFIC","TRAFFIC","CIVIC CENTER PARKING LOT","",""
"12/28/2017","22:12","217CR0033347","T/S","T/S","FRONT AND ATLANTIC","",""
"12/28/2017","22:19","217CR0033348","T/S","T/S","TEXAS AND FARRELL","",""
"12/28/2017","22:27","217CR0033349","THEFT","CRIMINAL TRESPASS TO PROPERTY","824 S MAIN","",""
"12/28/2017","22:43","217CR0033350","ANIMAL COMPLAINT","ANIMAL COMPLAINT","530 S IDAHO","",""
"12/28/2017","22:59","217CR0033351","T/S","T/S","SECOND AND WYOMING","",""
"12/28/2017","23:19","217CR0033352","ASSIST OTHER AGENCY","ASSIST OTHER AGENCY","GRAND AND HOME","",""
"12/28/2017","23:39","217CR0033353","T/S","DRIVE WHILE SUSP. OR REVOKED","PARK AND ALABAMA","",""
"12/28/2017","23:49","217CR0033354","STOLEN VEHICLE","STOLEN VEHICLE","3901 HARRISON WALMART","",""
"12/28/2017","23:50","217CR0033355","DISTURBANCE","ASSAULT, SIMPLE","1302 E SECOND ST SCOOP BAR","",""
"12/29/2017","00:07","217CR0033356","ASSAULT","ASSAULT","************","",""
"12/29/2017","00:21","217CR0033357","ACCIDENT","ACCIDENT","CIVIC CENTER N PARKING LOT","",""
"12/29/2017","00:45","217CR0033358","DISTURBANCE","DISTURBANCE","60 E BROADWAY /ACOMA","",""
"12/29/2017","00:54","217CR0033359","MEDICAL - EMERGENCY","MEDICAL - EMERGENCY","3434 BURLINGTON","",""
"12/29/2017","00:56","217CR0033360","INTOXICATED PERSON","INTOXICATED PERSON","10 BLK W PARK","",""
"12/29/2017","01:01","217CR0033361","ASSAULT","ASSAULT","************","",""
"12/29/2017","01:03","217CR0033362","ACCIDENT-MHP","ACCIDENT-MHP","S ROCKER RD AND SANTA CLAUS","",""
"12/29/2017","01:14","217CR0033363","ATL","ATL","ST ANN AND BANKS","",""
"12/29/2017","01:34","217CR0033364","DISTURBANCE","DISTURBANCE","112 N MAIN MALONEYS BAR","",""
"12/29/2017","02:11","217CR0033365","SUSPICIOUS ACTIVITY","OUT OF JURISDICTION - MISD","EXCELSIOR AND GALENA","",""
"12/29/2017","02:14","217CR0033366","ACCIDENT","ACCIDENT","I90 MM 215 EB","",""
"12/29/2017","02:20","217CR0033367","SUSPICIOUS ACTIVITY","DUI - (REFUSAL)","FRONT AND UTAH","ARREST(s) MADE",""
"12/29/2017","02:27","217CR0033368","UNKNOWN PROBLEM","UNKNOWN PROBLEM","314 W COPPER","",""
"12/29/2017","02:50","217CR0033369","DISTURBANCE","POSSESSION OF DANGEROUS DRUGS","727 MARYLAND AVE","ARREST(s) MADE",""
"12/29/2017","03:05","217CR0033370","T/S","DRIVING W/OUT VALID D/L","BROADWAY AND WYOMING","",""
"12/29/2017","03:22","217CR0033371","PROWLER","PROWLER","112 ROW SILVERBOW HOMES","",""
"12/29/2017","03:33","217CR0033372","TRAFFIC HAZARD","TRAFFIC HAZARD","200 BLK CENTENNIAL","",""
"12/29/2017","03:40","217CR0033373","WANTED PERSON","WANTED PERSON","************","",""
"12/29/2017","04:17","217CR0033374","SUSPICIOUS ACTIVITY","SUSPICIOUS ACTIVITY","1600 BLK N MAIN","",""
"12/29/2017","04:54","217CR0033375","SUSPICIOUS ACTIVITY","SUSPICIOUS ACTIVITY","1760 HARRISON SOUTHWEST MT FCU","",""
"12/29/2017","06:27","217CR0033376","STOLEN VEHICLE","STOLEN VEHICLE","122005 NISSLER RD","",""
"12/29/2017","07:36","217CR0033377","MEDICAL - EMERGENCY","MEDICAL - EMERGENCY","1504 SILVER BOW HOMES","",""
 

BSB police report ending December 28. 2017

"12/27/2017","00:26","217CR0033163","SUSPICIOUS ACTIVITY","POSSESSION OF DANGEROUS DRUGS","1500 BLK ELM ST","ARREST(s) MADE",""
"12/27/2017","00:39","217CR0033164","T/S","CRIMINAL CONTEMPT","DEWEY AND HARRISON","ARREST(s) MADE",""
"12/27/2017","01:22","217CR0033165","UNWANTED PERSON","UNWANTED PERSON","************","",""
"12/27/2017","01:46","217CR0033166","T/S","T/S","MAIN AND ALUMINUM","",""
"12/27/2017","02:05","217CR0033167","DISTURBANCE","DISTURBANCE","3501 HARRISON THRIFTWAY","",""
"12/27/2017","02:30","217CR0033168","SUSPICIOUS ACTIVITY","SUSPICIOUS ACTIVITY","1600 BLK PHILLIPS AVE","",""
"12/27/2017","02:42","217CR0033169","UNWANTED PERSON","UNWANTED PERSON","************","",""
"12/27/2017","02:45","217CR0033170","SUSPICIOUS ACTIVITY","SUSPICIOUS ACTIVITY","2700 BLK AMHERST","",""
"12/27/2017","03:38","217CR0033171","UNWANTED PERSON","CRIMINAL CONTEMPT","2900 HARRSION/BUTTE PLAZA INN","ARREST(s) MADE",""
"12/27/2017","05:51","217CR0033172","ALARM - BURGLARY","ALARM - BURGLARY","************","",""
"12/27/2017","06:37","217CR0033173","SUSPICIOUS ACTIVITY","SUSPICIOUS ACTIVITY","843 LEXINGTON","",""
"12/27/2017","06:39","217CR0033174","ALARM - MEDICAL","ALARM - MEDICAL","************","",""
"12/27/2017","06:42","217CR0033175","ALARM - BURGLARY","ALARM - BURGLARY","************","",""
"12/27/2017","06:43","217CR0033176","DETENTION BUSINESS","DETENTION BUSINESS","************","",""
"12/27/2017","06:49","217CR0033177","UNWANTED PERSON","UNWANTED PERSON","************","",""
"12/27/2017","06:52","217CR0033178","THEFT","CRIMINAL MISCHIEF","1300 BLK JANNEY RD","",""
"12/27/2017","07:26","217CR0033179","ALARM - BURGLARY","ALARM - BURGLARY","************","",""
"12/27/2017","07:36","217CR0033180","CIVIL PAPER SERVICE","CIVIL PAPER SERVICE","706 W GALENA","",""
"12/27/2017","08:12","217CR0033181","HIT AND RUN","HIT AND RUN","501 W GRANITE","",""
"12/27/2017","09:14","217CR0033182","WELFARE CHECK","WELFARE CHECK","1432 EASY ST","",""
"12/27/2017","09:30","217CR0033183","THEFT","THEFT","4800 HARRISON","",""
"12/27/2017","10:00","217CR0033184","ALARM - FIRE","ALARM - FIRE","3016 PAXSON AVE","",""
"12/27/2017","10:04","217CR0033185","HARASSMENT","HARASSMENT","2100 CORNELL","",""
"12/27/2017","10:23","217CR0033186","HIT AND RUN","HIT AND RUN","MOULTON RES RD","",""
"12/27/2017","10:45","217CR0033187","CIVIL STANDBY","CIVIL STANDBY","1506 SILVER BOW HOMES","",""
"12/27/2017","11:42","217CR0033188","DISTURBANCE","DISTURBANCE","2890 SILVER BOW BLVD","",""
"12/27/2017","11:44","217CR0033189","THEFT","THEFT","2900 BAYARD ST","",""
"12/27/2017","11:45","217CR0033190","LED BUSINESS","LED BUSINESS","MERCURY ST AND WASHINGTON ST","",""
"12/27/2017","11:49","217CR0033191","UNWANTED PERSON","UNWANTED PERSON","************","",""
"12/27/2017","12:07","217CR0033192","WANTED PERSON","CRIMINAL CONTEMPT","304 N MAIN","ARREST(s) MADE",""
"12/27/2017","12:08","217CR0033194","MEDICAL - EMERGENCY","MEDICAL - EMERGENCY","220 W MERCURY","",""
"12/27/2017","12:08","217CR0033193","WELFARE CHECK","WELFARE CHECK","151 WOLF TRIAL","",""
"12/27/2017","12:19","217CR0033195","VANDALISM/CRIMINAL MISCHIEF","VANDALISM/CRIMINAL MISCHIEF","1384 SUNRISE LN","",""
"12/27/2017","12:30","217CR0033196","MEDICAL - EMERGENCY","MEDICAL - EMERGENCY","100 GARDENS WAY APT 118","",""
"12/27/2017","12:31","217CR0033197","FIRE - OTHER","FIRE - OTHER","EXCELSIOR AND DIAMOND","",""
"12/27/2017","12:37","217CR0033198","PARKING COMPLAINT","PARKING COMPLAINT","GALENA AND MAIN","",""
"12/27/2017","13:06","217CR0033199","THEFT","THEFT","800 S UTAH","",""
"12/27/2017","13:10","217CR0033200","ASSIST OTHER AGENCY","ASSIST OTHER AGENCY","4043 CORTO TRL #1","",""
"12/27/2017","13:17","217CR0033201","ALARM - BURGLARY","ALARM - BURGLARY","************","",""
"12/27/2017","13:21","217CR0033202","HARASSMENT","HARASSMENT","445 CENTENIAL COMMUNITY HEALTH","",""
"12/27/2017","13:24","217CR0033203","T/S","T/S","SHIELDS AND CHICAGO","",""
"12/27/2017","13:25","217CR0033204","JUVENILE MISC","JUVENILE MISC","************","",""
"12/27/2017","13:26","217CR0033205","THEFT","THEFT FROM MOTOR VEHICLE","1300 W PARK/MT TECH HYPER","",""
"12/27/2017","13:52","217CR0033206","UNKNOWN PROBLEM","UNKNOWN PROBLEM","825 8TH ST","",""
"12/27/2017","13:54","217CR0033207","SUICIDE ATTEMPT/THREAT","SUICIDE ATTEMPT/THREAT","************","",""
"12/27/2017","14:13","217CR0033208","OPEN BUILDING","OPEN BUILDING","615 W SILVER","",""
"12/27/2017","14:29","217CR0033209","ATL","ATL","FRONT ST AND MONTANA ST","",""
"12/27/2017","14:37","217CR0033210","TRAFFIC HAZARD","TRAFFIC HAZARD","10 BLK S MONTANA","",""
"12/27/2017","14:40","217CR0033211","MEDICAL - EMERGENCY","MEDICAL - EMERGENCY","1515 OREGON AVE #404","",""
"12/27/2017","15:23","217CR0033213","CIVIL PAPER SERVICE","CIVIL PAPER SERVICE","105 RAMPART DRIVE #110","",""
"12/27/2017","15:30","217CR0033214","PARKING COMPLAINT","PARKING COMPLAINT","3225 STATE ST","",""
"12/27/2017","15:50","217CR0033215","SUSPICIOUS ACTIVITY","SUSPICIOUS ACTIVITY","226 W SILVER","",""
"12/27/2017","16:00","217CR0033216","T/S","OPERATING WITHOUT CURRENT REGI","PLATINUM ST AND IDAHO ST","",""
"12/27/2017","16:04","217CR0033217","WELFARE CHECK","WELFARE CHECK","321 N JACKSON APT B","",""
"12/27/2017","16:07","217CR0033218","FOUND PROPERTY","FOUND PROPERTY","************","",""
"12/27/2017","16:21","217CR0033219","SUSPICIOUS ACTIVITY","SUSPICIOUS ACTIVITY","3001 HARRISON","",""
"12/27/2017","16:23","217CR0033221","HIT AND RUN","HIT AND RUN","HARRISON AND ELIZABETH WARREN","",""
"12/27/2017","16:24","217CR0033220","T/S","T/S","KAW AVE AND CASEY ST","",""
"12/27/2017","16:26","217CR0033222","CITIZEN AID","CITIZEN AID","1125 S MAIN","",""
"12/27/2017","16:34","217CR0033223","ACCIDENT","ACCIDENT","HARRISON AND I90 WB RAMP","",""
"12/27/2017","16:41","217CR0033224","CIVIL PAPER SERVICE","CIVIL PAPER SERVICE","225 N ALASKA ST","",""
"12/27/2017","16:52","217CR0033225","THEFT","THEFT","3009 BAYARD ST","",""
"12/27/2017","16:55","217CR0033226","CIVIL PAPER SERVICE","CIVIL PAPER SERVICE","209 S CRYSTAL ST","",""
"12/27/2017","17:31","217CR0033227","ALARM - FIRE","ALARM - FIRE","1800 LOCUST ST","",""
"12/27/2017","17:32","217CR0033228","T/S","T/S","MAIN ST AND PLATINUM ST","",""
"12/27/2017","17:33","217CR0033229","HARASSMENT","HARASSMENT","706 SILVER BOW HOMES","",""
"12/27/2017","17:39","217CR0033230","STOLEN VEHICLE","STOLEN VEHICLE","208 N CLARK","",""
"12/27/2017","17:45","217CR0033231","T/S","T/S","BROADWAY AND MONTANA ST","",""
"12/27/2017","17:55","217CR0033232","SUSPICIOUS ACTIVITY","SUSPICIOUS ACTIVITY","3100 BLK JOSEPHINE ST","",""
"12/27/2017","17:57","217CR0033233","SUSPICIOUS ACTIVITY","SUSPICIOUS ACTIVITY","EXCELSIOR AVE AND GOLD ST","",""
"12/27/2017","18:11","217CR0033234","T/S","T/S","MAIN ST AND COPPER ST","",""
"12/27/2017","18:31","217CR0033235","T/S","NO LIABILITY INSURANCE IN EFF.","CASEY ST AND IOWA ST","",""
"12/27/2017","18:41","217CR0033236","T/S","T/S","MONTANA ST AND IRON ST","",""
"12/27/2017","18:49","217CR0033237","T/S","T/S","2305 CONTINENTAL","",""
"12/27/2017","18:53","217CR0033238","FIRE- GAS ODOR","FIRE- GAS ODOR","914 W GALENA","",""
"12/27/2017","18:56","217CR0033239","MEDICAL - EMERGENCY","MEDICAL - EMERGENCY","ELIZABETH WARREN AND HARRISON","",""
"12/27/2017","19:06","217CR0033240","T/S","T/S","FRONT ST AND MARYLAND ST","",""
"12/27/2017","19:11","217CR0033241","DISTURBANCE","DISTURBANCE","25 N JACKSON","",""
"12/27/2017","19:22","217CR0033242","T/S","T/S @ GRAND AVE AND CAROLINA","GRAND AVE AND CAROLINA","",""
"12/27/2017","19:39","217CR0033243","T/S","T/S","GEORGE ST AND MONTANA ST","",""
"12/27/2017","19:42","217CR0033244","HARASSMENT","HARASSMENT","1515 OREGON #514","",""
"12/27/2017","19:44","217CR0033245","TRAFFIC HAZARD","TRAFFIC HAZARD","COBBAN ST AND KAW AVE","",""
"12/27/2017","19:51","217CR0033246","DISTURBANCE","INTIMIDATION","25 N JACKSON","ARREST(s) MADE",""
"12/27/2017","20:03","217CR0033247","SUSPICIOUS ACTIVITY","SUSPICIOUS ACTIVITY","PARK ST LIQUOR STR/133 W PAR","",""
"12/27/2017","20:22","217CR0033248","T/S","T/S @ HOLMES AVE AND HILL ST","HOLMES AVE AND HILL ST","",""
"12/27/2017","20:33","217CR0033249","UNKNOWN PROBLEM","UNKNOWN PROBLEM","350 S MONTANA ST","",""
"12/27/2017","20:49","217CR0033250","ALARM - BURGLARY","ALARM - BURGLARY","************","",""
"12/27/2017","20:51","217CR0033251","UNWANTED PERSON","UNWANTED PERSON","************","",""
"12/27/2017","21:10","217CR0033252","ACCIDENT","ACCIDENT","CENTENIAL AND EXCELSIOR","",""
"12/27/2017","21:13","217CR0033253","DISTURBANCE","DISTURBANCE","2704 SILVER BOW BLVD","",""
"12/27/2017","21:34","217CR0033254","MISSING PERSON","MISSING PERSON","************","",""
"12/27/2017","21:42","217CR0033255","JUVENILE MISC","JUVENILE MISC","************","",""
"12/27/2017","22:06","217CR0033256","DISTURBANCE","PFMA - SERIOUS BODILY INJURY","5100 S WARREN #51","",""
"12/27/2017","22:39","217CR0033257","TRAFFIC HAZARD","TRAFFIC HAZARD","HORNET ST AND EXCELSIOR AVE","",""
"12/27/2017","23:25","217CR0033258","CITIZEN AID","CITIZEN AID","10 BLK E BROADWAY","",""
"12/27/2017","23:29","217CR0033259","DISTURBANCE-NOISE","DISTURBANCE-NOISE","1325 W QUARTZ 2ND FLOOR","",""
"12/27/2017","23:40","217CR0033260","ACCIDENT - INJURY","ACCIDENT - INJURY","3900 BLK HARRISON","",""
"12/27/2017","23:43","217CR0033261","WELFARE CHECK","WELFARE CHECK","910 EVANS #D8","",""
"12/27/2017","23:49","217CR0033262","UNWANTED PERSON","UNWANTED PERSON","************","",""
"12/28/2017","00:01","217CR0033263","ALL OTHER","ALL OTHER","4701 HARRISON THRIFTWAY","",""
"12/28/2017","00:22","217CR0033264","TRAFFIC HAZARD","CARELESS DRIVING","ARIZONA ST AND PARK ST","",""
"12/28/2017","00:35","217CR0033265","MEDICAL - EMERGENCY","MEDICAL - EMERGENCY","721 HOBSON #4","",""
"12/28/2017","00:59","217CR0033266","SUICIDE ATTEMPT/THREAT","SUICIDE ATTEMPT/THREAT","************","",""
"12/28/2017","01:25","217CR0033267","SUSPICIOUS ACTIVITY","SUSPICIOUS ACTIVITY","10 BLK N MAIN","",""
"12/28/2017","01:33","217CR0033268","DISTURBANCE","DISTURBANCE","1938 GAYLORD","",""
"12/28/2017","04:30","217CR0033269","T/S","T/S @ HARRISON AND CORNELL","HARRISON AND CORNELL","",""
"12/28/2017","05:37","217CR0033270","PROWLER","PROWLER","3218 EDWARDS","",""
"12/28/2017","06:05","217CR0033272","SUSPICIOUS ACTIVITY","SUSPICIOUS ACTIVITY","2001 DEWEY MAGIC DIAMOND CASIN","",""
 

BSB police report ending December 27, 2017

"12/26/2017","00:12","217CR0033080","T/S","T/S @ MONTANA ST AND ALUMINUM ST","MONTANA ST AND ALUMINUM ST","",""
"12/26/2017","00:23","217CR0033081","MEDICAL - EMERGENCY","MEDICAL - EMERGENCY","2708 HARVARD","",""
"12/26/2017","00:26","217CR0033082","LED BUSINESS","LED BUSINESS","400 S CLARK ST","",""
"12/26/2017","02:47","217CR0033083","ATL","ATL","400 S CLARK ST JAMES ER","",""
"12/26/2017","05:28","217CR0033084","MEDICAL - EMERGENCY","MEDICAL - EMERGENCY","1514 NORTH B ST","",""
"12/26/2017","05:48","217CR0033085","MEDICAL - EMERGENCY","MEDICAL - EMERGENCY","1002 S MONTANA ST #B","",""
"12/26/2017","07:14","217CR0033086","WELFARE CHECK","WELFARE CHECK","GEORGE AND HARRISON","",""
"12/26/2017","08:52","217CR0033087","FIRE- GAS ODOR","FIRE- GAS ODOR","3346 HARRISON AVE","",""
"12/26/2017","09:02","217CR0033088","CIVIL PAPER SERVICE","CIVIL PAPER SERVICE","706 W GALENA","",""
"12/26/2017","09:03","217CR0033089","TRAFFIC HAZARD","TRAFFIC HAZARD","ALABAMA AND GALENA","",""
"12/26/2017","09:10","217CR0033090","FRAUD","FRAUD","2102 HARRISON AVE","",""
"12/26/2017","09:38","217CR0033091","CIVIL PAPER SERVICE","CIVIL PAPER SERVICE","105 RAMPART DR #110","",""
"12/26/2017","09:46","217CR0033092","ACCIDENT-MHP","ACCIDENT-MHP","I15 MM 127B SB","",""
"12/26/2017","09:49","217CR0033093","ACCIDENT","ACCIDENT","HARRISON AVE AND CLEVLAND ST","",""
"12/26/2017","10:02","217CR0033094","DETENTION BUSINESS","DETENTION BUSINESS","************","",""
"12/26/2017","10:08","217CR0033095","WELFARE CHECK","WELFARE CHECK","634 W BROADWAY","",""
"12/26/2017","10:23","217CR0033096","TRAFFIC HAZARD","TRAFFIC HAZARD","FARRAGUT AND NORTH DRIVE","",""
"12/26/2017","10:29","217CR0033097","ACCIDENT-MHP","ACCIDENT-MHP","I90 MM 236 WB","",""
"12/26/2017","10:35","217CR0033098","ATL","ATL","COPPER KING MANSION/219 W GRAN","",""
"12/26/2017","10:39","217CR0033099","FRAUD","FORGERY/COUNTERFEIT","1053 COLORADO","",""
"12/26/2017","10:50","217CR0033100","STOLEN VEHICLE","MOTOR VEHICLE THEFT","825 W COPPER","",""
"12/26/2017","11:32","217CR0033101","THEFT","ROBBERY","3901 HARRISON AVE","ARREST(s) MADE",""
"12/26/2017","12:12","217CR0033102","ALARM - BURGLARY","ALARM - BURGLARY","************","",""
"12/26/2017","12:14","217CR0033103","ASSIST OTHER AGENCY","ASSIST OTHER AGENCY","I90 MM213 WB","",""
"12/26/2017","13:08","217CR0033104","SUSPICIOUS ACTIVITY","SUSPICIOUS ACTIVITY","205 W WOOLMAN","",""
"12/26/2017","13:16","217CR0033105","LED BUSINESS","LED BUSINESS","UPTOWN FOOT PATROL","",""
"12/26/2017","13:25","217CR0033106","ACCIDENT","CARELESS DRIVING","3100 BLK HARRISON","",""
"12/26/2017","13:42","217CR0033107","UNWANTED PERSON","UNWANTED PERSON","************","",""
"12/26/2017","14:14","217CR0033108","WELFARE CHECK","WELFARE CHECK","412 W MERCURY","",""
"12/26/2017","14:26","217CR0033109","TRAFFIC HAZARD","TRAFFIC HAZARD","EVANS ST AND LEXINGTON AVE","",""
"12/26/2017","14:30","217CR0033110","UNWANTED PERSON","UNWANTED PERSON","************","",""
"12/26/2017","14:36","217CR0033111","ACCIDENT","ACCIDENT","635 MARYLAND AVE","",""
"12/26/2017","14:42","217CR0033112","DETENTION BUSINESS","DETENTION BUSINESS","************","",""
"12/26/2017","14:48","217CR0033113","THEFT","THEFT","215 S DAKOTA ST","",""
"12/26/2017","14:51","217CR0033114","THEFT","THEFT","1301 HARRISON AVE","",""
"12/26/2017","14:55","217CR0033115","TRAFFIC","TRAFFIC","PORTER AND MARCIA","",""
"12/26/2017","15:01","217CR0033116","ASSIST OTHER AGENCY","ASSIST OTHER AGENCY","I90 236 EBND","",""
"12/26/2017","15:05","217CR0033117","FOUND PROPERTY","FOUND PROPERTY","************","",""
"12/26/2017","15:18","217CR0033118","CIVIL PAPER SERVICE","CIVIL PAPER SERVICE","3400 HILL APT 1005","",""
"12/26/2017","15:19","217CR0033119","VANDALISM/CRIMINAL MISCHIEF","VANDALISM/CRIMINAL MISCHIEF","106 W BROADWAY","",""
"12/26/2017","15:22","217CR0033120","DISTURBANCE","DISORDERLY CONDUCT","50 W BROADWAY/LEGGITT APT","ARREST(s) MADE",""
"12/26/2017","15:23","217CR0033121","ACCIDENT","ACCIDENT","3100 HARRISON BUTTE PLAZA MALL","",""
"12/26/2017","15:26","217CR0033122","THEFT","THEFT","1301 HARRISON AVE","",""
"12/26/2017","15:39","217CR0033123","CIVIL PAPER SERVICE","CIVIL PAPER SERVICE","2971 TEAL APT #11","",""
"12/26/2017","15:44","217CR0033124","ASSIST OTHER AGENCY","ASSIST OTHER AGENCY","I90 MM 233 EB","",""
"12/26/2017","15:45","217CR0033125","T/S","DRIVING W/OUT VALID D/L","ARGYLE AND THORTON","",""
"12/26/2017","15:49","217CR0033126","DISTURBANCE","DISTURBANCE","1900 BLK SILVERBOW HOMES","",""
"12/26/2017","15:52","217CR0033127","VEHICLE INSPECTION","VEHICLE INSPECTION","1255 WESTSIDE BLVD","",""
"12/26/2017","16:05","217CR0033128","CIVIL PAPER SERVICE","CIVIL PAPER SERVICE","100 E FRONT","",""
"12/26/2017","16:13","217CR0033129","THEFT","THEFT","904 W PARK BSW GROUP HOME","",""
"12/26/2017","16:30","217CR0033130","WELFARE CHECK","WELFARE CHECK","4655 HARRISON AVE","",""
"12/26/2017","16:48","217CR0033131","WELFARE CHECK","WELFARE CHECK","1809 PORTER","",""
"12/26/2017","16:52","217CR0033132","DISTURBANCE","DISTURBANCE","16 W GALENA APT D","",""
"12/26/2017","17:17","217CR0033133","T/S","T/S","MARCIA AND FLORENCE","",""
"12/26/2017","17:24","217CR0033134","ATL","ATL","CLARK ST AND GRANITE ST","",""
"12/26/2017","17:35","217CR0033135","ALL OTHER","ALL OTHER","EXCELSIOR AVE AND PORPHYRY ST","",""
"12/26/2017","18:22","217CR0033136","UNWANTED PERSON","UNWANTED PERSON","************","",""
"12/26/2017","18:32","217CR0033138","ALL OTHER","ALL OTHER","920 S COLORADO","",""
"12/26/2017","18:45","217CR0033139","T/S","T/S","GRAND AND THOMAS","",""
"12/26/2017","18:58","217CR0033140","THEFT","THEFT","1022 MARYLAND APT A","",""
"12/26/2017","19:46","217CR0033141","MEDICAL - ASSIST","MEDICAL - ASSIST","************","",""
"12/26/2017","19:56","217CR0033142","T/S","T/S @ AMHERST ST AND CONTINENTAL DR","AMHERST ST AND CONTINENTAL DR","",""
"12/26/2017","20:05","217CR0033143","T/S","T/S","TEXAS SILVER BOW","",""
"12/26/2017","20:19","217CR0033144","T/S","T/S","GRANITE AND WYOMING","",""
"12/26/2017","20:19","217CR0033145","UNKNOWN PROBLEM","UNKNOWN PROBLEM","1021 GAYLORD","",""
"12/26/2017","20:35","217CR0033146","ASSIST OTHER AGENCY","ASSIST OTHER AGENCY","I15 MM 121 NB","",""
"12/26/2017","20:37","217CR0033147","DISTURBANCE","DISTURBANCE","118 N IDAHO ST","",""
"12/26/2017","20:44","217CR0033148","ASSIST OTHER AGENCY","ASSIST OTHER AGENCY","I90 MM 216 WB","",""
"12/26/2017","20:51","217CR0033149","PROWLER","PROWLER","MERCURY ST AND WASHINGTON ST","",""
"12/26/2017","21:04","217CR0033150","ALL OTHER","ALL OTHER","2929 HARRISON AVE","",""
"12/26/2017","21:08","217CR0033151","FIREWORKS COMPLAINT","FIREWORKS COMPLAINT","2000 BLK ARGYLE","",""
"12/26/2017","21:23","217CR0033152","ASSIST OTHER AGENCY","ASSIST OTHER AGENCY","I90 MM 237 WB","",""
"12/26/2017","21:34","217CR0033153","ACCIDENT - INJURY","ACCIDENT - INJURY","HARRISON AND ELIZABETH WARREN","",""
"12/26/2017","21:37","217CR0033154","T/S","T/S","1080 S MONTANA","",""
"12/26/2017","21:40","217CR0033155","WELFARE CHECK","WELFARE CHECK","4655 HARRISON AVE","",""
"12/26/2017","21:46","217CR0033156","ACCIDENT","ACCIDENT","CENTENIAL AND EXCELSIOR","",""
"12/26/2017","22:00","217CR0033157","ALARM - FIRE","ALARM - FIRE","3939 HARRISON MURDOCHS","",""
"12/26/2017","22:23","217CR0033158","ALARM - BURGLARY","ALARM - BURGLARY","************","",""
"12/26/2017","23:00","217CR0033159","ATL","ATL","BIG M","",""
"12/26/2017","23:16","217CR0033160","T/S","T/S","KAW AND FRONT","",""
"12/26/2017","23:24","217CR0033161","MEDICAL - EMERGENCY","MEDICAL - EMERGENCY","628 W GRANITE","",""
"12/26/2017","23:51","217CR0033162","BUSINESS CHECK","BUSINESS CHECK","3700 HARRISON TOWN PUMP","",""
"12/27/2017","00:26","217CR0033163","SUSPICIOUS ACTIVITY","POSSESSION OF DANGEROUS DRUGS","1500 BLK ELM ST","ARREST(s) MADE",""
"12/27/2017","00:39","217CR0033164","T/S","CRIMINAL CONTEMPT","DEWEY AND HARRISON","ARREST(s) MADE",""
"12/27/2017","01:22","217CR0033165","UNWANTED PERSON","UNWANTED PERSON","************","",""
"12/27/2017","01:46","217CR0033166","T/S","T/S","MAIN AND ALUMINUM","",""
"12/27/2017","02:05","217CR0033167","DISTURBANCE","DISTURBANCE","3501 HARRISON THRIFTWAY","",""
"12/27/2017","02:30","217CR0033168","SUSPICIOUS ACTIVITY","SUSPICIOUS ACTIVITY","1600 BLK PHILLIPS AVE","",""
"12/27/2017","02:42","217CR0033169","UNWANTED PERSON","UNWANTED PERSON","************","",""
"12/27/2017","02:45","217CR0033170","SUSPICIOUS ACTIVITY","SUSPICIOUS ACTIVITY","2700 BLK AMHERST","",""
"12/27/2017","03:38","217CR0033171","UNWANTED PERSON","CRIMINAL CONTEMPT","2900 HARRSION/BUTTE PLAZA INN","ARREST(s) MADE",""
"12/27/2017","05:51","217CR0033172","ALARM - BURGLARY","ALARM - BURGLARY","************","",""
"12/27/2017","06:37","217CR0033173","SUSPICIOUS ACTIVITY","SUSPICIOUS ACTIVITY","843 LEXINGTON","",""
"12/27/2017","06:39","217CR0033174","ALARM - MEDICAL","ALARM - MEDICAL","************","",""
"12/27/2017","06:42","217CR0033175","ALARM - BURGLARY","ALARM - BURGLARY","************","",""
"12/27/2017","06:43","217CR0033176","DETENTION BUSINESS","DETENTION BUSINESS","************","",""
"12/27/2017","06:49","217CR0033177","UNWANTED PERSON","UNWANTED PERSON","************","",""
"12/27/2017","07:26","217CR0033179","ALARM - BURGLARY","ALARM - BURGLARY","************","",""
"12/27/2017","07:36","217CR0033180","CIVIL PAPER SERVICE","CIVIL PAPER SERVICE","706 W GALENA","",""
 

Subcategories

Wednesday the 17th. Affiliate Marketing.
Copyright 2012

©